Time,TemperatureF,DewpointF,PressureIn,WindDirection,WindDirectionDegrees,WindSpeedMPH,WindSpeedGustMPH,Humidity,HourlyPrecipIn,Conditions,Clouds,dailyrainin,SoftwareType,DateUTC
2013-08-27 00:01:00,72.6,67.1,30.17,South,188,0.0,0.0,83,0.00,SCT,,0.00,WeatherDisplay:10.37,2013-08-27 04:01:00,
2013-08-27 00:06:00,72.5,67.0,30.17,South,188,0.0,0.0,83,0.00,SCT,,0.00,WeatherDisplay:10.37,2013-08-27 04:06:00,
2013-08-27 00:07:00,72.5,67.0,30.17,South,188,0.0,0.0,83,0.00,SCT,,0.00,WeatherDisplay:10.37,2013-08-27 04:07:00,
2013-08-27 00:11:00,72.3,67.2,30.17,South,188,0.0,0.0,84,0.00,SCT,,0.00,WeatherDisplay:10.37,2013-08-27 04:11:00,
2013-08-27 00:12:00,72.3,67.2,30.17,South,188,0.0,0.0,84,0.00,SCT,,0.00,WeatherDisplay:10.37,2013-08-27 04:12:00,
2013-08-27 00:16:00,72.2,67.1,30.17,South,188,0.0,0.0,84,0.00,SCT,,0.00,WeatherDisplay:10.37,2013-08-27 04:16:00,
2013-08-27 00:17:00,72.2,67.1,30.17,South,188,0.0,0.0,84,0.00,SCT,,0.00,WeatherDisplay:10.37,2013-08-27 04:17:00,
2013-08-27 00:21:00,71.7,66.6,30.17,South,188,0.0,0.0,84,0.00,SCT,,0.00,WeatherDisplay:10.37,2013-08-27 04:21:00,
2013-08-27 00:22:00,71.7,66.6,30.17,South,188,0.0,0.0,84,0.00,SCT,,0.00,WeatherDisplay:10.37,2013-08-27 04:22:00,
2013-08-27 00:26:00,71.7,66.6,30.17,South,188,0.0,0.0,84,0.00,SCT,,0.00,WeatherDisplay:10.37,2013-08-27 04:26:00,
2013-08-27 00:27:00,71.7,66.6,30.17,South,188,0.0,0.0,84,0.00,SCT,,0.00,WeatherDisplay:10.37,2013-08-27 04:27:00,
2013-08-27 00:32:00,72.1,67.0,30.17,South,188,0.0,0.0,84,0.00,SCT,,0.00,WeatherDisplay:10.37,2013-08-27 04:32:00,
2013-08-27 00:33:00,72.0,66.9,30.17,South,188,0.0,0.0,84,0.00,SCT,,0.00,WeatherDisplay:10.37,2013-08-27 04:33:00,
2013-08-27 00:37:00,72.2,67.1,30.17,South,188,0.0,0.0,84,0.00,SCT,,0.00,WeatherDisplay:10.37,2013-08-27 04:37:00,
2013-08-27 00:38:00,72.2,67.1,30.17,South,188,0.0,0.0,84,0.00,SCT,,0.00,WeatherDisplay:10.37,2013-08-27 04:38:00,
2013-08-27 00:42:00,72.1,67.0,30.17,South,188,0.0,0.0,84,0.00,SCT,,0.00,WeatherDisplay:10.37,2013-08-27 04:42:00,
2013-08-27 00:43:00,72.1,67.0,30.16,South,188,0.0,0.0,84,0.00,SCT,,0.00,WeatherDisplay:10.37,2013-08-27 04:43:00,
2013-08-27 00:44:00,72.0,66.9,30.17,South,188,0.0,0.0,84,0.00,SCT,,0.00,WeatherDisplay:10.37,2013-08-27 04:44:00,
2013-08-27 00:47:00,71.9,67.1,30.16,South,188,0.0,0.0,85,0.00,SCT,,0.00,WeatherDisplay:10.37,2013-08-27 04:47:00,
2013-08-27 00:48:00,71.9,66.8,30.16,South,188,0.0,0.0,84,0.00,SCT,,0.00,WeatherDisplay:10.37,2013-08-27 04:48:00,
2013-08-27 00:49:00,71.8,66.7,30.16,South,188,0.0,0.0,84,0.00,SCT,,0.00,WeatherDisplay:10.37,2013-08-27 04:49:00,
2013-08-27 00:52:00,71.8,67.0,30.16,South,188,0.0,0.0,85,0.00,SCT,,0.00,WeatherDisplay:10.37,2013-08-27 04:52:00,
2013-08-27 00:53:00,71.7,66.9,30.16,South,188,0.0,0.0,85,0.00,SCT,,0.00,WeatherDisplay:10.37,2013-08-27 04:53:00,
2013-08-27 00:54:00,71.7,66.9,30.16,South,188,0.0,0.0,85,0.00,SCT,,0.00,WeatherDisplay:10.37,2013-08-27 04:54:00,
2013-08-27 00:57:00,71.7,66.9,30.16,South,188,0.0,0.0,85,0.00,SCT,,0.00,WeatherDisplay:10.37,2013-08-27 04:57:00,
2013-08-27 00:58:00,71.7,66.9,30.16,South,188,0.0,0.0,85,0.00,SCT,,0.00,WeatherDisplay:10.37,2013-08-27 04:58:00,
2013-08-27 00:59:00,71.7,66.6,30.16,South,189,0.0,0.0,84,0.00,SCT,,0.00,WeatherDisplay:10.37,2013-08-27 04:59:00,
2013-08-27 01:02:00,71.6,66.5,30.16,South,188,0.0,0.0,84,0.00,SCT,,0.00,WeatherDisplay:10.37,2013-08-27 05:02:00,
2013-08-27 01:03:00,71.5,66.4,30.16,South,188,0.0,0.0,84,0.00,SCT,,0.00,WeatherDisplay:10.37,2013-08-27 05:03:00,
2013-08-27 01:04:00,71.4,66.3,30.16,South,188,0.0,0.0,84,0.00,SCT,,0.00,WeatherDisplay:10.37,2013-08-27 05:04:00,
2013-08-27 01:05:00,71.3,66.2,30.16,South,188,0.0,0.0,84,0.00,SCT,,0.00,WeatherDisplay:10.37,2013-08-27 05:05:00,
2013-08-27 01:07:00,71.1,66.4,30.16,South,188,0.0,0.0,85,0.00,SCT,,0.00,WeatherDisplay:10.37,2013-08-27 05:07:00,
2013-08-27 01:08:00,71.1,66.4,30.16,South,189,0.0,0.0,85,0.00,SCT,,0.00,WeatherDisplay:10.37,2013-08-27 05:08:00,
2013-08-27 01:09:00,71.1,66.4,30.16,South,188,0.0,0.0,85,0.00,SCT,,0.00,WeatherDisplay:10.37,2013-08-27 05:09:00,
2013-08-27 01:10:00,71.0,66.6,30.16,South,188,0.0,0.0,86,0.00,SCT,,0.00,WeatherDisplay:10.37,2013-08-27 05:10:00,
2013-08-27 01:12:00,71.1,66.7,30.16,South,188,0.0,0.0,86,0.00,SCT,,0.00,WeatherDisplay:10.37,2013-08-27 05:12:00,
2013-08-27 01:13:00,71.1,66.7,30.16,South,188,0.0,0.0,86,0.00,SCT,,0.00,WeatherDisplay:10.37,2013-08-27 05:13:00,
2013-08-27 01:14:00,71.1,66.7,30.16,South,188,0.0,0.0,86,0.00,SCT,,0.00,WeatherDisplay:10.37,2013-08-27 05:14:00,
2013-08-27 01:15:00,71.1,66.7,30.16,South,188,0.0,0.0,86,0.00,SCT,,0.00,WeatherDisplay:10.37,2013-08-27 05:15:00,
2013-08-27 01:18:00,71.0,66.3,30.16,South,188,0.0,0.0,85,0.00,SCT,,0.00,WeatherDisplay:10.37,2013-08-27 05:18:00,
2013-08-27 01:19:00,71.0,66.3,30.16,South,189,0.0,0.0,85,0.00,SCT,,0.00,WeatherDisplay:10.37,2013-08-27 05:19:00,
2013-08-27 01:20:00,71.0,66.3,30.16,South,188,0.0,0.0,85,0.00,SCT,,0.00,WeatherDisplay:10.37,2013-08-27 05:20:00,
2013-08-27 01:23:00,71.0,66.3,30.16,South,188,0.0,0.0,85,0.00,SCT,,0.00,WeatherDisplay:10.37,2013-08-27 05:23:00,
2013-08-27 01:24:00,71.0,66.3,30.16,South,188,0.0,0.0,85,0.00,SCT,,0.00,WeatherDisplay:10.37,2013-08-27 05:24:00,
2013-08-27 01:25:00,71.0,65.9,30.16,South,188,0.0,0.0,84,0.00,SCT,,0.00,WeatherDisplay:10.37,2013-08-27 05:25:00,
2013-08-27 01:28:00,70.9,65.8,30.16,South,188,0.0,0.0,84,0.00,SCT,,0.00,WeatherDisplay:10.37,2013-08-27 05:28:00,
2013-08-27 01:29:00,70.9,66.2,30.16,South,188,0.0,0.0,85,0.00,SCT,,0.00,WeatherDisplay:10.37,2013-08-27 05:29:00,
2013-08-27 01:30:00,70.9,65.8,30.16,South,188,0.0,0.0,84,0.00,SCT,,0.00,WeatherDisplay:10.37,2013-08-27 05:30:00,
2013-08-27 01:33:00,70.8,66.1,30.16,South,188,0.0,0.0,85,0.00,SCT,,0.00,WeatherDisplay:10.37,2013-08-27 05:33:00,
2013-08-27 01:34:00,70.8,66.1,30.16,South,188,0.0,0.0,85,0.00,SCT,,0.00,WeatherDisplay:10.37,2013-08-27 05:34:00,
2013-08-27 01:35:00,70.8,66.1,30.16,South,188,0.0,0.0,85,0.00,SCT,,0.00,WeatherDisplay:10.37,2013-08-27 05:35:00,
2013-08-27 01:38:00,71.1,66.0,30.16,South,188,0.0,0.0,84,0.00,SCT,,0.00,WeatherDisplay:10.37,2013-08-27 05:38:00,
2013-08-27 01:39:00,71.1,66.4,30.16,South,188,0.0,0.0,85,0.00,SCT,,0.00,WeatherDisplay:10.37,2013-08-27 05:39:00,
2013-08-27 01:40:00,71.1,66.0,30.16,South,189,0.0,0.0,84,0.00,SCT,,0.00,WeatherDisplay:10.37,2013-08-27 05:40:00,
2013-08-27 01:44:00,71.1,66.4,30.16,South,188,0.0,0.0,85,0.00,SCT,,0.00,WeatherDisplay:10.37,2013-08-27 05:44:00,
2013-08-27 01:45:00,71.0,66.3,30.16,South,188,0.0,0.0,85,0.00,SCT,,0.00,WeatherDisplay:10.37,2013-08-27 05:45:00,
2013-08-27 01:49:00,71.0,66.3,30.16,South,188,0.0,0.0,85,0.00,SCT,,0.00,WeatherDisplay:10.37,2013-08-27 05:49:00,
2013-08-27 01:50:00,71.0,66.3,30.16,South,188,0.0,0.0,85,0.00,SCT,,0.00,WeatherDisplay:10.37,2013-08-27 05:50:00,
2013-08-27 01:54:00,70.8,66.1,30.16,South,188,0.0,0.0,85,0.00,SCT,,0.00,WeatherDisplay:10.37,2013-08-27 05:54:00,
2013-08-27 01:55:00,70.8,66.1,30.16,South,188,0.0,0.0,85,0.00,SCT,,0.00,WeatherDisplay:10.37,2013-08-27 05:55:00,
2013-08-27 01:59:00,70.7,66.6,30.15,South,188,0.0,0.0,87,0.00,SCT,,0.00,WeatherDisplay:10.37,2013-08-27 05:59:00,
2013-08-27 02:00:00,70.7,66.3,30.16,South,188,0.0,0.0,86,0.00,SCT,,0.00,WeatherDisplay:10.37,2013-08-27 06:00:00,
2013-08-27 02:01:00,70.7,66.3,30.16,South,188,0.0,0.0,86,0.00,SCT,,0.00,WeatherDisplay:10.37,2013-08-27 06:01:00,
2013-08-27 02:04:00,70.8,66.7,30.15,South,188,0.0,0.0,87,0.00,SCT,,0.00,WeatherDisplay:10.37,2013-08-27 06:04:00,
2013-08-27 02:05:00,70.8,66.7,30.15,South,188,0.0,0.0,87,0.00,SCT,,0.00,WeatherDisplay:10.37,2013-08-27 06:05:00,
2013-08-27 02:06:00,70.8,66.7,30.15,South,188,0.0,0.0,87,0.00,SCT,,0.00,WeatherDisplay:10.37,2013-08-27 06:06:00,
2013-08-27 02:09:00,70.8,66.4,30.15,South,188,0.0,0.0,86,0.00,SCT,,0.00,WeatherDisplay:10.37,2013-08-27 06:09:00,
2013-08-27 02:10:00,70.8,66.4,30.15,South,188,0.0,0.0,86,0.00,SCT,,0.00,WeatherDisplay:10.37,2013-08-27 06:10:00,
2013-08-27 02:11:00,70.8,66.1,30.15,South,188,0.0,0.0,85,0.00,SCT,,0.00,WeatherDisplay:10.37,2013-08-27 06:11:00,
2013-08-27 02:14:00,70.8,66.1,30.15,South,188,0.0,0.0,85,0.00,SCT,,0.00,WeatherDisplay:10.37,2013-08-27 06:14:00,
2013-08-27 02:15:00,70.8,66.1,30.15,South,188,0.0,0.0,85,0.00,SCT,,0.00,WeatherDisplay:10.37,2013-08-27 06:15:00,
2013-08-27 02:16:00,70.7,66.0,30.15,South,188,0.0,0.0,85,0.00,SCT,,0.00,WeatherDisplay:10.37,2013-08-27 06:16:00,
2013-08-27 02:19:00,70.6,66.2,30.15,South,188,0.0,0.0,86,0.00,SCT,,0.00,WeatherDisplay:10.37,2013-08-27 06:19:00,
2013-08-27 02:20:00,70.6,66.2,30.15,South,188,0.0,0.0,86,0.00,SCT,,0.00,WeatherDisplay:10.37,2013-08-27 06:20:00,
2013-08-27 02:21:00,70.5,66.1,30.15,South,188,0.0,0.0,86,0.00,SCT,,0.00,WeatherDisplay:10.37,2013-08-27 06:21:00,
2013-08-27 02:24:00,70.5,66.1,30.15,South,188,0.0,0.0,86,0.00,SCT,,0.00,WeatherDisplay:10.37,2013-08-27 06:24:00,
2013-08-27 02:25:00,70.5,66.4,30.15,South,188,0.0,0.0,87,0.00,SCT,,0.00,WeatherDisplay:10.37,2013-08-27 06:25:00,
2013-08-27 02:26:00,70.5,66.4,30.15,South,188,0.0,0.0,87,0.00,SCT,,0.00,WeatherDisplay:10.37,2013-08-27 06:26:00,
2013-08-27 02:30:00,70.6,66.5,30.15,South,188,0.0,0.0,87,0.00,SCT,,0.00,WeatherDisplay:10.37,2013-08-27 06:30:00,
2013-08-27 02:31:00,70.6,66.5,30.15,South,188,0.0,0.0,87,0.00,SCT,,0.00,WeatherDisplay:10.37,2013-08-27 06:31:00,
2013-08-27 02:35:00,70.6,66.5,30.15,South,188,0.0,0.0,87,0.00,SCT,,0.00,WeatherDisplay:10.37,2013-08-27 06:35:00,
2013-08-27 02:36:00,70.6,66.5,30.15,South,188,0.0,0.0,87,0.00,SCT,,0.00,WeatherDisplay:10.37,2013-08-27 06:36:00,
2013-08-27 02:37:00,70.6,66.2,30.15,South,188,0.0,0.0,86,0.00,SCT,,0.00,WeatherDisplay:10.37,2013-08-27 06:37:00,
2013-08-27 02:40:00,70.6,66.5,30.15,South,188,0.0,1.1,87,0.00,SCT,,0.00,WeatherDisplay:10.37,2013-08-27 06:40:00,
2013-08-27 02:41:00,70.6,66.5,30.15,South,188,0.0,0.0,87,0.00,SCT,,0.00,WeatherDisplay:10.37,2013-08-27 06:41:00,
2013-08-27 02:42:00,70.6,66.2,30.15,South,188,0.0,0.0,86,0.00,SCT,,0.00,WeatherDisplay:10.37,2013-08-27 06:42:00,
2013-08-27 02:45:00,70.5,66.1,30.15,South,188,0.0,0.0,86,0.00,SCT,,0.00,WeatherDisplay:10.37,2013-08-27 06:45:00,
2013-08-27 02:46:00,70.5,66.1,30.15,South,188,0.0,0.0,86,0.00,SCT,,0.00,WeatherDisplay:10.37,2013-08-27 06:46:00,
2013-08-27 02:47:00,70.5,66.4,30.15,South,188,0.0,0.0,87,0.00,SCT,,0.00,WeatherDisplay:10.37,2013-08-27 06:47:00,
2013-08-27 02:51:00,70.5,66.4,30.15,South,188,0.0,0.0,87,0.00,SCT,,0.00,WeatherDisplay:10.37,2013-08-27 06:51:00,
2013-08-27 02:52:00,70.5,66.1,30.15,South,188,0.0,0.0,86,0.00,SCT,,0.00,WeatherDisplay:10.37,2013-08-27 06:52:00,
2013-08-27 02:56:00,70.4,66.0,30.15,South,188,0.0,0.0,86,0.00,SCT,,0.00,WeatherDisplay:10.37,2013-08-27 06:56:00,
2013-08-27 02:57:00,70.4,66.0,30.15,South,188,0.0,0.0,86,0.00,SCT,,0.00,WeatherDisplay:10.37,2013-08-27 06:57:00,
2013-08-27 02:58:00,70.3,66.2,30.15,South,188,0.0,0.0,87,0.00,SCT,,0.00,WeatherDisplay:10.37,2013-08-27 06:58:00,
2013-08-27 03:01:00,70.3,65.9,30.15,South,188,0.0,0.0,86,0.00,SCT,,0.00,WeatherDisplay:10.37,2013-08-27 07:01:00,
2013-08-27 03:02:00,70.2,66.1,30.15,South,188,0.0,0.0,87,0.00,SCT,,0.00,WeatherDisplay:10.37,2013-08-27 07:02:00,
2013-08-27 03:04:00,70.1,66.0,30.15,South,188,0.0,0.0,87,0.00,SCT,,0.00,WeatherDisplay:10.37,2013-08-27 07:04:00,
2013-08-27 03:06:00,70.1,66.0,30.15,South,188,0.0,0.0,87,0.00,SCT,,0.00,WeatherDisplay:10.37,2013-08-27 07:06:00,
2013-08-27 03:07:00,70.1,66.0,30.15,South,188,0.0,0.0,87,0.00,SCT,,0.00,WeatherDisplay:10.37,2013-08-27 07:07:00,
2013-08-27 03:08:00,70.1,66.0,30.15,South,188,0.0,0.0,87,0.00,SCT,,0.00,WeatherDisplay:10.37,2013-08-27 07:08:00,
2013-08-27 03:09:00,70.0,66.0,30.15,South,188,0.0,0.0,87,0.00,SCT,,0.00,WeatherDisplay:10.37,2013-08-27 07:09:00,
2013-08-27 03:11:00,70.0,66.0,30.15,South,188,0.0,0.0,87,0.00,SCT,,0.00,WeatherDisplay:10.37,2013-08-27 07:11:00,
2013-08-27 03:12:00,70.0,66.0,30.14,South,188,0.0,0.0,87,0.00,SCT,,0.00,WeatherDisplay:10.37,2013-08-27 07:12:00,
2013-08-27 03:13:00,70.0,66.0,30.15,South,188,0.0,0.0,87,0.00,SCT,,0.00,WeatherDisplay:10.37,2013-08-27 07:13:00,
2013-08-27 03:14:00,69.9,65.9,30.14,South,188,0.0,0.0,87,0.00,SCT,,0.00,WeatherDisplay:10.37,2013-08-27 07:14:00,
2013-08-27 03:16:00,69.9,65.9,30.14,South,188,0.0,0.0,87,0.00,SCT,,0.00,WeatherDisplay:10.37,2013-08-27 07:16:00,
2013-08-27 03:17:00,69.8,65.8,30.14,South,188,0.0,0.0,87,0.00,SCT,,0.00,WeatherDisplay:10.37,2013-08-27 07:17:00,
2013-08-27 03:18:00,69.9,65.9,30.14,South,188,0.0,0.0,87,0.00,SCT,,0.00,WeatherDisplay:10.37,2013-08-27 07:18:00,
2013-08-27 03:19:00,69.9,65.9,30.14,South,188,0.0,0.0,87,0.00,SCT,,0.00,WeatherDisplay:10.37,2013-08-27 07:19:00,
2013-08-27 03:20:00,69.8,65.8,30.15,South,188,0.0,0.0,87,0.00,SCT,,0.00,WeatherDisplay:10.37,2013-08-27 07:20:00,
2013-08-27 03:21:00,69.8,65.8,30.15,South,188,0.0,0.0,87,0.00,SCT,,0.00,WeatherDisplay:10.37,2013-08-27 07:21:00,
2013-08-27 03:22:00,69.8,65.8,30.15,South,189,0.0,0.0,87,0.00,SCT,,0.00,WeatherDisplay:10.37,2013-08-27 07:22:00,
2013-08-27 03:23:00,69.8,65.8,30.15,South,188,0.0,0.0,87,0.00,SCT,,0.00,WeatherDisplay:10.37,2013-08-27 07:23:00,
2013-08-27 03:24:00,69.8,65.8,30.15,South,188,0.0,0.0,87,0.00,SCT,,0.00,WeatherDisplay:10.37,2013-08-27 07:24:00,
2013-08-27 03:25:00,69.8,65.8,30.15,South,188,0.0,0.0,87,0.00,SCT,,0.00,WeatherDisplay:10.37,2013-08-27 07:25:00,
2013-08-27 03:26:00,69.8,65.8,30.15,South,188,0.0,0.0,87,0.00,SCT,,0.00,WeatherDisplay:10.37,2013-08-27 07:26:00,
2013-08-27 03:27:00,69.8,65.8,30.15,South,188,0.0,0.0,87,0.00,SCT,,0.00,WeatherDisplay:10.37,2013-08-27 07:27:00,
2013-08-27 03:28:00,69.8,65.8,30.15,South,188,0.0,0.0,87,0.00,SCT,,0.00,WeatherDisplay:10.37,2013-08-27 07:28:00,
2013-08-27 03:29:00,69.8,65.8,30.15,South,188,0.0,0.0,87,0.00,SCT,,0.00,WeatherDisplay:10.37,2013-08-27 07:29:00,
2013-08-27 03:30:00,69.8,65.8,30.15,South,188,0.0,0.0,87,0.00,SCT,,0.00,WeatherDisplay:10.37,2013-08-27 07:30:00,
2013-08-27 03:31:00,69.8,65.8,30.15,South,188,0.0,0.0,87,0.00,SCT,,0.00,WeatherDisplay:10.37,2013-08-27 07:31:00,
2013-08-27 03:32:00,69.8,65.8,30.15,South,188,0.0,0.0,87,0.00,SCT,,0.00,WeatherDisplay:10.37,2013-08-27 07:32:00,
2013-08-27 03:33:00,69.8,65.8,30.15,South,188,0.0,0.0,87,0.00,SCT,,0.00,WeatherDisplay:10.37,2013-08-27 07:33:00,
2013-08-27 03:34:00,69.8,65.8,30.15,South,188,0.0,0.0,87,0.00,SCT,,0.00,WeatherDisplay:10.37,2013-08-27 07:34:00,
2013-08-27 03:35:00,69.8,65.8,30.15,South,188,0.0,0.0,87,0.00,SCT,,0.00,WeatherDisplay:10.37,2013-08-27 07:35:00,
2013-08-27 03:36:00,69.7,65.7,30.15,South,188,0.0,0.0,87,0.00,SCT,,0.00,WeatherDisplay:10.37,2013-08-27 07:36:00,
2013-08-27 03:37:00,69.7,65.7,30.15,South,188,0.0,0.0,87,0.00,SCT,,0.00,WeatherDisplay:10.37,2013-08-27 07:37:00,
2013-08-27 03:38:00,69.7,65.7,30.14,South,189,0.0,0.0,87,0.00,SCT,,0.00,WeatherDisplay:10.37,2013-08-27 07:38:00,
2013-08-27 03:39:00,69.6,65.6,30.14,South,188,0.0,0.0,87,0.00,SCT,,0.00,WeatherDisplay:10.37,2013-08-27 07:39:00,
2013-08-27 03:40:00,69.6,65.6,30.14,South,188,0.0,0.0,87,0.00,SCT,,0.00,WeatherDisplay:10.37,2013-08-27 07:40:00,
2013-08-27 03:41:00,69.6,65.6,30.14,South,188,0.0,0.0,87,0.00,SCT,,0.00,WeatherDisplay:10.37,2013-08-27 07:41:00,
2013-08-27 03:43:00,69.6,65.6,30.14,South,188,0.0,0.0,87,0.00,SCT,,0.00,WeatherDisplay:10.37,2013-08-27 07:43:00,
2013-08-27 03:44:00,69.6,65.6,30.14,South,188,0.0,0.0,87,0.00,SCT,,0.00,WeatherDisplay:10.37,2013-08-27 07:44:00,
2013-08-27 03:45:00,69.6,65.6,30.14,South,188,0.0,0.0,87,0.00,SCT,,0.00,WeatherDisplay:10.37,2013-08-27 07:45:00,
2013-08-27 03:46:00,69.6,65.6,30.14,South,188,0.0,0.0,87,0.00,SCT,,0.00,WeatherDisplay:10.37,2013-08-27 07:46:00,
2013-08-27 03:48:00,69.6,65.6,30.14,South,188,0.0,0.0,87,0.00,SCT,,0.00,WeatherDisplay:10.37,2013-08-27 07:48:00,
2013-08-27 03:50:00,69.6,65.6,30.14,South,188,0.0,0.0,87,0.00,SCT,,0.00,WeatherDisplay:10.37,2013-08-27 07:50:00,
2013-08-27 03:51:00,69.5,65.5,30.14,South,188,0.0,0.0,87,0.00,SCT,,0.00,WeatherDisplay:10.37,2013-08-27 07:51:00,
2013-08-27 03:52:00,69.5,65.5,30.14,South,188,0.0,0.0,87,0.00,SCT,,0.00,WeatherDisplay:10.37,2013-08-27 07:52:00,
2013-08-27 03:53:00,69.5,65.8,30.14,South,188,0.0,0.0,88,0.00,SCT,,0.00,WeatherDisplay:10.37,2013-08-27 07:53:00,
2013-08-27 03:55:00,69.5,65.8,30.14,South,188,0.0,0.0,88,0.00,SCT,,0.00,WeatherDisplay:10.37,2013-08-27 07:55:00,
2013-08-27 03:56:00,69.5,65.8,30.14,South,188,0.0,0.0,88,0.00,SCT,,0.00,WeatherDisplay:10.37,2013-08-27 07:56:00,
2013-08-27 03:57:00,69.5,65.8,30.14,South,188,0.0,0.0,88,0.00,SCT,,0.00,WeatherDisplay:10.37,2013-08-27 07:57:00,
2013-08-27 03:59:00,69.4,65.7,30.14,South,188,0.0,0.0,88,0.00,SCT,,0.00,WeatherDisplay:10.37,2013-08-27 07:59:00,
2013-08-27 04:00:00,69.4,65.7,30.14,South,188,0.0,0.0,88,0.00,SCT,,0.00,WeatherDisplay:10.37,2013-08-27 08:00:00,
2013-08-27 04:01:00,69.4,65.7,30.14,South,188,0.0,0.0,88,0.00,BKN,,0.00,WeatherDisplay:10.37,2013-08-27 08:01:00,
2013-08-27 04:02:00,69.4,65.7,30.14,South,189,0.0,0.0,88,0.00,BKN,,0.00,WeatherDisplay:10.37,2013-08-27 08:02:00,
2013-08-27 04:04:00,69.4,65.7,30.14,South,188,0.0,0.0,88,0.00,BKN,,0.00,WeatherDisplay:10.37,2013-08-27 08:04:00,
2013-08-27 04:05:00,69.4,66.0,30.14,South,189,0.0,0.0,89,0.00,BKN,,0.00,WeatherDisplay:10.37,2013-08-27 08:05:00,
2013-08-27 04:06:00,69.4,65.7,30.14,South,189,0.0,0.0,88,0.00,BKN,,0.00,WeatherDisplay:10.37,2013-08-27 08:06:00,
2013-08-27 04:08:00,69.3,65.6,30.14,South,189,0.0,0.0,88,0.00,BKN,,0.00,WeatherDisplay:10.37,2013-08-27 08:08:00,
2013-08-27 04:10:00,69.4,65.7,30.14,South,189,0.0,0.0,88,0.00,BKN,,0.00,WeatherDisplay:10.37,2013-08-27 08:10:00,
2013-08-27 04:11:00,69.4,65.7,30.14,South,189,0.0,0.0,88,0.00,BKN,,0.00,WeatherDisplay:10.37,2013-08-27 08:11:00,
2013-08-27 04:13:00,69.3,65.6,30.14,South,189,0.0,0.0,88,0.00,BKN,,0.00,WeatherDisplay:10.37,2013-08-27 08:13:00,
2013-08-27 04:15:00,69.3,65.6,30.14,South,189,0.0,0.0,88,0.00,BKN,,0.00,WeatherDisplay:10.37,2013-08-27 08:15:00,
2013-08-27 04:16:00,69.3,65.6,30.14,South,188,0.0,0.0,88,0.00,BKN,,0.00,WeatherDisplay:10.37,2013-08-27 08:16:00,
2013-08-27 04:18:00,69.3,65.6,30.14,South,189,0.0,0.0,88,0.00,BKN,,0.00,WeatherDisplay:10.37,2013-08-27 08:18:00,
2013-08-27 04:20:00,69.2,65.5,30.14,South,189,0.0,0.0,88,0.00,BKN,,0.00,WeatherDisplay:10.37,2013-08-27 08:20:00,
2013-08-27 04:21:00,69.2,65.5,30.14,South,189,0.0,0.0,88,0.00,BKN,,0.00,WeatherDisplay:10.37,2013-08-27 08:21:00,
2013-08-27 04:24:00,69.2,65.5,30.14,South,189,0.0,0.0,88,0.00,BKN,,0.00,WeatherDisplay:10.37,2013-08-27 08:24:00,
2013-08-27 04:25:00,69.1,65.4,30.14,South,189,0.0,0.0,88,0.00,BKN,,0.00,WeatherDisplay:10.37,2013-08-27 08:25:00,
2013-08-27 04:26:00,69.1,65.4,30.14,South,189,0.0,0.0,88,0.00,BKN,,0.00,WeatherDisplay:10.37,2013-08-27 08:26:00,
2013-08-27 04:27:00,69.1,65.4,30.14,South,189,0.0,0.0,88,0.00,BKN,,0.00,WeatherDisplay:10.37,2013-08-27 08:27:00,
2013-08-27 04:29:00,69.0,65.3,30.14,South,189,0.0,0.0,88,0.00,BKN,,0.00,WeatherDisplay:10.37,2013-08-27 08:29:00,
2013-08-27 04:30:00,69.0,65.3,30.14,South,188,0.0,0.0,88,0.00,BKN,,0.00,WeatherDisplay:10.37,2013-08-27 08:30:00,
2013-08-27 04:31:00,68.9,65.2,30.14,South,189,0.0,0.0,88,0.00,BKN,,0.00,WeatherDisplay:10.37,2013-08-27 08:31:00,
2013-08-27 04:32:00,68.9,65.5,30.14,South,188,0.0,0.0,89,0.00,BKN,,0.00,WeatherDisplay:10.37,2013-08-27 08:32:00,
2013-08-27 04:34:00,68.9,65.5,30.14,South,189,0.0,0.0,89,0.00,BKN,,0.00,WeatherDisplay:10.37,2013-08-27 08:34:00,
2013-08-27 04:35:00,68.9,65.2,30.14,South,189,0.0,0.0,88,0.00,BKN,,0.00,WeatherDisplay:10.37,2013-08-27 08:35:00,
2013-08-27 04:36:00,68.9,65.2,30.14,South,189,0.0,0.0,88,0.00,BKN,,0.00,WeatherDisplay:10.37,2013-08-27 08:36:00,
2013-08-27 04:37:00,68.9,68.9,30.14,South,188,0.0,0.0,100,0.00,BKN,,0.00,WeatherDisplay:10.37,2013-08-27 08:37:00,
2013-08-27 04:39:00,68.9,65.2,30.14,South,189,0.0,0.0,88,0.00,BKN,,0.00,WeatherDisplay:10.37,2013-08-27 08:39:00,
2013-08-27 04:40:00,68.9,65.2,30.14,South,189,0.0,0.0,88,0.00,BKN,,0.00,WeatherDisplay:10.37,2013-08-27 08:40:00,
2013-08-27 04:42:00,68.8,65.1,30.14,South,189,0.0,0.0,88,0.00,BKN,,0.00,WeatherDisplay:10.37,2013-08-27 08:42:00,
2013-08-27 04:43:00,68.8,65.1,30.14,South,188,0.0,0.0,88,0.00,BKN,,0.00,WeatherDisplay:10.37,2013-08-27 08:43:00,
2013-08-27 04:45:00,68.8,65.1,30.14,South,189,0.0,0.0,88,0.00,BKN,,0.00,WeatherDisplay:10.37,2013-08-27 08:45:00,
2013-08-27 04:47:00,68.7,65.0,30.14,South,189,0.0,0.0,88,0.00,BKN,,0.00,WeatherDisplay:10.37,2013-08-27 08:47:00,
2013-08-27 04:48:00,68.7,65.0,30.14,South,189,0.0,0.0,88,0.00,BKN,,0.00,WeatherDisplay:10.37,2013-08-27 08:48:00,
2013-08-27 04:50:00,68.6,64.9,30.14,South,189,0.0,0.0,88,0.00,BKN,,0.00,WeatherDisplay:10.37,2013-08-27 08:50:00,
2013-08-27 04:53:00,68.5,65.1,30.14,South,189,0.0,0.0,89,0.00,BKN,,0.00,WeatherDisplay:10.37,2013-08-27 08:53:00,
2013-08-27 04:55:00,68.4,65.0,30.14,South,189,0.0,0.0,89,0.00,BKN,,0.00,WeatherDisplay:10.37,2013-08-27 08:55:00,
2013-08-27 04:56:00,68.4,65.0,30.14,South,189,0.0,0.0,89,0.00,BKN,,0.00,WeatherDisplay:10.37,2013-08-27 08:56:00,
2013-08-27 04:58:00,68.4,65.0,30.14,South,189,0.0,0.0,89,0.00,BKN,,0.00,WeatherDisplay:10.37,2013-08-27 08:58:00,
2013-08-27 05:00:00,68.4,65.4,30.14,South,189,0.0,0.0,90,0.00,OVC,,0.00,WeatherDisplay:10.37,2013-08-27 09:00:00,
2013-08-27 05:01:00,68.5,65.1,30.14,South,189,0.0,0.0,89,0.00,OVC,,0.00,WeatherDisplay:10.37,2013-08-27 09:01:00,
2013-08-27 05:03:00,68.5,65.1,30.13,South,189,0.0,0.0,89,0.00,OVC,,0.00,WeatherDisplay:10.37,2013-08-27 09:03:00,
2013-08-27 05:04:00,68.4,65.4,30.13,South,189,0.0,0.0,90,0.00,OVC,,0.00,WeatherDisplay:10.37,2013-08-27 09:04:00,
2013-08-27 05:06:00,68.4,65.0,30.13,South,189,0.0,0.0,89,0.00,OVC,,0.00,WeatherDisplay:10.37,2013-08-27 09:06:00,
2013-08-27 05:07:00,68.4,65.0,30.14,South,189,0.0,0.0,89,0.00,OVC,,0.00,WeatherDisplay:10.37,2013-08-27 09:07:00,
2013-08-27 05:08:00,68.4,65.0,30.13,South,189,0.0,0.0,89,0.00,OVC,,0.00,WeatherDisplay:10.37,2013-08-27 09:08:00,
2013-08-27 05:09:00,68.4,65.0,30.13,South,189,0.0,0.0,89,0.00,OVC,,0.00,WeatherDisplay:10.37,2013-08-27 09:09:00,
2013-08-27 05:11:00,68.4,65.0,30.14,South,188,0.0,0.0,89,0.00,OVC,,0.00,WeatherDisplay:10.37,2013-08-27 09:11:00,
2013-08-27 05:12:00,68.4,65.0,30.13,South,189,0.0,0.0,89,0.00,OVC,,0.00,WeatherDisplay:10.37,2013-08-27 09:12:00,
2013-08-27 05:13:00,68.4,65.0,30.13,South,189,0.0,0.0,89,0.00,OVC,,0.00,WeatherDisplay:10.37,2013-08-27 09:13:00,
2013-08-27 05:14:00,68.4,65.0,30.14,South,189,0.0,0.0,89,0.00,OVC,,0.00,WeatherDisplay:10.37,2013-08-27 09:14:00,
2013-08-27 05:16:00,68.3,64.9,30.14,South,189,0.0,0.0,89,0.00,OVC,,0.00,WeatherDisplay:10.37,2013-08-27 09:16:00,
2013-08-27 05:17:00,68.3,64.9,30.13,South,189,0.0,0.0,89,0.00,OVC,,0.00,WeatherDisplay:10.37,2013-08-27 09:17:00,
2013-08-27 05:19:00,68.3,64.9,30.13,South,189,0.0,0.0,89,0.00,OVC,,0.00,WeatherDisplay:10.37,2013-08-27 09:19:00,
2013-08-27 05:21:00,68.3,64.9,30.13,South,189,0.0,0.0,89,0.00,OVC,,0.00,WeatherDisplay:10.37,2013-08-27 09:21:00,
2013-08-27 05:22:00,68.2,64.5,30.13,South,189,0.0,0.0,88,0.00,OVC,,0.00,WeatherDisplay:10.37,2013-08-27 09:22:00,
2013-08-27 05:24:00,68.2,64.8,30.14,South,189,0.0,0.0,89,0.00,OVC,,0.00,WeatherDisplay:10.37,2013-08-27 09:24:00,
2013-08-27 05:25:00,68.2,64.8,30.14,South,189,0.0,0.0,89,0.00,OVC,,0.00,WeatherDisplay:10.37,2013-08-27 09:25:00,
2013-08-27 05:26:00,68.2,64.8,30.14,South,189,0.0,0.0,89,0.00,OVC,,0.00,WeatherDisplay:10.37,2013-08-27 09:26:00,
2013-08-27 05:27:00,68.2,64.8,30.14,South,189,0.0,0.0,89,0.00,OVC,,0.00,WeatherDisplay:10.37,2013-08-27 09:27:00,
2013-08-27 05:29:00,68.1,64.7,30.14,South,189,0.0,0.0,89,0.00,OVC,,0.00,WeatherDisplay:10.37,2013-08-27 09:29:00,
2013-08-27 05:30:00,68.1,64.7,30.14,South,189,0.0,0.0,89,0.00,OVC,,0.00,WeatherDisplay:10.37,2013-08-27 09:30:00,
2013-08-27 05:31:00,68.1,64.7,30.14,South,189,0.0,0.0,89,0.00,OVC,,0.00,WeatherDisplay:10.37,2013-08-27 09:31:00,
2013-08-27 05:32:00,68.1,64.7,30.14,South,189,0.0,0.0,89,0.00,OVC,,0.00,WeatherDisplay:10.37,2013-08-27 09:32:00,
2013-08-27 05:33:00,68.1,64.7,30.14,South,189,0.0,0.0,89,0.00,OVC,,0.00,WeatherDisplay:10.37,2013-08-27 09:33:00,
2013-08-27 05:34:00,68.1,64.7,30.14,South,189,0.0,0.0,89,0.00,OVC,,0.00,WeatherDisplay:10.37,2013-08-27 09:34:00,
2013-08-27 05:36:00,68.0,64.3,30.14,South,188,0.0,0.0,88,0.00,OVC,,0.00,WeatherDisplay:10.37,2013-08-27 09:36:00,
2013-08-27 05:37:00,68.0,64.3,30.14,South,189,0.0,0.0,88,0.00,OVC,,0.00,WeatherDisplay:10.37,2013-08-27 09:37:00,
2013-08-27 05:38:00,68.0,64.3,30.14,South,189,0.0,0.0,88,0.00,OVC,,0.00,WeatherDisplay:10.37,2013-08-27 09:38:00,
2013-08-27 05:39:00,67.9,64.5,30.14,South,189,0.0,0.0,89,0.00,OVC,,0.00,WeatherDisplay:10.37,2013-08-27 09:39:00,
2013-08-27 05:42:00,67.8,64.4,30.14,South,188,0.0,0.0,89,0.00,OVC,,0.00,WeatherDisplay:10.37,2013-08-27 09:42:00,
2013-08-27 05:43:00,67.8,64.4,30.14,South,189,0.0,0.0,89,0.00,OVC,,0.00,WeatherDisplay:10.37,2013-08-27 09:43:00,
2013-08-27 05:45:00,67.8,64.4,30.13,South,189,0.0,0.0,89,0.00,OVC,,0.00,WeatherDisplay:10.37,2013-08-27 09:45:00,
2013-08-27 05:47:00,67.7,64.7,30.14,South,189,0.0,0.0,90,0.00,OVC,,0.00,WeatherDisplay:10.37,2013-08-27 09:47:00,
2013-08-27 05:48:00,67.7,64.7,30.14,South,189,0.0,0.0,90,0.00,OVC,,0.00,WeatherDisplay:10.37,2013-08-27 09:48:00,
2013-08-27 05:50:00,67.7,64.3,30.14,South,189,0.0,0.0,89,0.00,OVC,,0.00,WeatherDisplay:10.37,2013-08-27 09:50:00,
2013-08-27 05:52:00,67.6,64.2,30.14,South,189,0.0,0.0,89,0.00,OVC,,0.00,WeatherDisplay:10.37,2013-08-27 09:52:00,
2013-08-27 05:53:00,67.6,64.2,30.14,South,189,0.0,0.0,89,0.00,OVC,,0.00,WeatherDisplay:10.37,2013-08-27 09:53:00,
2013-08-27 05:55:00,67.6,64.2,30.14,South,189,0.0,0.0,89,0.00,OVC,,0.00,WeatherDisplay:10.37,2013-08-27 09:55:00,
2013-08-27 05:57:00,67.5,64.1,30.14,South,189,0.0,0.0,89,0.00,OVC,,0.00,WeatherDisplay:10.37,2013-08-27 09:57:00,
2013-08-27 05:58:00,67.5,64.1,30.14,South,189,0.0,0.0,89,0.00,OVC,,0.00,WeatherDisplay:10.37,2013-08-27 09:58:00,
2013-08-27 06:00:00,67.5,64.1,30.14,South,189,0.0,0.0,89,0.00,BKN,,0.00,WeatherDisplay:10.37,2013-08-27 10:00:00,
2013-08-27 06:02:00,67.5,64.1,30.14,South,189,0.0,0.0,89,0.00,BKN,,0.00,WeatherDisplay:10.37,2013-08-27 10:02:00,
2013-08-27 06:03:00,67.5,64.1,30.14,South,189,0.0,0.0,89,0.00,BKN,,0.00,WeatherDisplay:10.37,2013-08-27 10:03:00,
2013-08-27 06:04:00,67.4,64.0,30.13,South,188,0.0,0.0,89,0.00,BKN,,0.00,WeatherDisplay:10.37,2013-08-27 10:04:00,
2013-08-27 06:05:00,67.4,64.0,30.14,South,189,0.0,0.0,89,0.00,BKN,,0.00,WeatherDisplay:10.37,2013-08-27 10:05:00,
2013-08-27 06:07:00,67.3,63.9,30.14,South,189,0.0,0.0,89,0.00,BKN,,0.00,WeatherDisplay:10.37,2013-08-27 10:07:00,
2013-08-27 06:08:00,67.2,63.8,30.14,South,189,0.0,0.0,89,0.00,BKN,,0.00,WeatherDisplay:10.37,2013-08-27 10:08:00,
2013-08-27 06:09:00,67.2,63.8,30.14,South,189,0.0,0.0,89,0.00,BKN,,0.00,WeatherDisplay:10.37,2013-08-27 10:09:00,
2013-08-27 06:11:00,67.1,63.7,30.14,South,189,0.0,0.0,89,0.00,BKN,,0.00,WeatherDisplay:10.37,2013-08-27 10:11:00,
2013-08-27 06:13:00,67.1,63.7,30.14,South,189,0.0,0.0,89,0.00,BKN,,0.00,WeatherDisplay:10.37,2013-08-27 10:13:00,
2013-08-27 06:14:00,67.1,63.7,30.14,South,189,0.0,0.0,89,0.00,BKN,,0.00,WeatherDisplay:10.37,2013-08-27 10:14:00,
2013-08-27 06:16:00,67.1,63.7,30.13,South,189,0.0,0.0,89,0.00,BKN,,0.00,WeatherDisplay:10.37,2013-08-27 10:16:00,
2013-08-27 06:18:00,67.1,63.7,30.14,South,189,0.0,0.0,89,0.00,BKN,,0.00,WeatherDisplay:10.37,2013-08-27 10:18:00,
2013-08-27 06:19:00,67.1,63.7,30.14,South,189,0.0,0.0,89,0.00,BKN,,0.00,WeatherDisplay:10.37,2013-08-27 10:19:00,
2013-08-27 06:21:00,67.0,63.6,30.14,South,189,0.0,0.0,89,0.00,BKN,,0.00,WeatherDisplay:10.37,2013-08-27 10:21:00,
2013-08-27 06:23:00,67.0,63.6,30.14,South,189,0.0,0.0,89,0.00,BKN,,0.00,WeatherDisplay:10.37,2013-08-27 10:23:00,
2013-08-27 06:24:00,67.0,63.6,30.14,South,189,0.0,0.0,89,0.00,BKN,,0.00,WeatherDisplay:10.37,2013-08-27 10:24:00,
2013-08-27 06:26:00,67.0,63.6,30.14,South,189,0.0,0.0,89,0.00,BKN,,0.00,WeatherDisplay:10.37,2013-08-27 10:26:00,
2013-08-27 06:29:00,66.8,63.1,30.14,South,189,0.0,0.0,88,0.00,BKN,,0.00,WeatherDisplay:10.37,2013-08-27 10:29:00,
2013-08-27 06:31:00,66.8,63.5,30.14,South,189,0.0,0.0,89,0.00,BKN,,0.00,WeatherDisplay:10.37,2013-08-27 10:31:00,
2013-08-27 06:34:00,66.8,63.8,30.14,South,189,0.0,0.0,90,0.00,BKN,,0.00,WeatherDisplay:10.37,2013-08-27 10:34:00,
2013-08-27 06:35:00,66.8,63.5,30.14,South,189,0.0,0.0,89,0.00,BKN,,0.00,WeatherDisplay:10.37,2013-08-27 10:35:00,
2013-08-27 06:37:00,66.8,63.5,30.15,South,189,0.0,0.0,89,0.00,BKN,,0.00,WeatherDisplay:10.37,2013-08-27 10:37:00,
2013-08-27 06:39:00,66.8,63.8,30.15,South,189,0.0,0.0,90,0.00,BKN,,0.00,WeatherDisplay:10.37,2013-08-27 10:39:00,
2013-08-27 06:40:00,66.8,63.8,30.15,South,189,0.0,0.0,90,0.00,BKN,,0.00,WeatherDisplay:10.37,2013-08-27 10:40:00,
2013-08-27 06:42:00,66.8,63.5,30.15,South,189,0.0,0.0,89,0.00,BKN,,0.00,WeatherDisplay:10.37,2013-08-27 10:42:00,
2013-08-27 06:44:00,66.8,63.5,30.15,South,189,0.0,0.0,89,0.00,BKN,,0.00,WeatherDisplay:10.37,2013-08-27 10:44:00,
2013-08-27 06:45:00,66.7,63.4,30.15,South,189,0.0,0.0,89,0.00,BKN,,0.00,WeatherDisplay:10.37,2013-08-27 10:45:00,
2013-08-27 06:46:00,66.7,63.4,30.15,South,188,0.0,0.0,89,0.00,BKN,,0.00,WeatherDisplay:10.37,2013-08-27 10:46:00,
2013-08-27 06:47:00,66.7,63.4,30.15,South,189,0.0,0.0,89,0.00,BKN,,0.00,WeatherDisplay:10.37,2013-08-27 10:47:00,
2013-08-27 06:49:00,66.6,63.3,30.15,South,189,0.0,0.0,89,0.00,BKN,,0.00,WeatherDisplay:10.37,2013-08-27 10:49:00,
2013-08-27 06:50:00,66.6,63.3,30.15,South,189,0.0,0.0,89,0.00,BKN,,0.00,WeatherDisplay:10.37,2013-08-27 10:50:00,
2013-08-27 06:51:00,66.6,63.3,30.14,South,189,0.0,0.0,89,0.00,BKN,,0.00,WeatherDisplay:10.37,2013-08-27 10:51:00,
2013-08-27 06:52:00,66.6,63.3,30.14,South,189,0.0,0.0,89,0.00,BKN,,0.00,WeatherDisplay:10.37,2013-08-27 10:52:00,
2013-08-27 06:54:00,66.5,63.2,30.14,South,189,0.0,0.0,89,0.00,BKN,,0.00,WeatherDisplay:10.37,2013-08-27 10:54:00,
2013-08-27 06:55:00,66.6,63.3,30.14,South,189,0.0,0.0,89,0.00,BKN,,0.00,WeatherDisplay:10.37,2013-08-27 10:55:00,
2013-08-27 06:56:00,66.5,63.5,30.14,South,189,0.0,0.0,90,0.00,BKN,,0.00,WeatherDisplay:10.37,2013-08-27 10:56:00,
2013-08-27 06:57:00,66.5,63.5,30.14,South,188,0.0,0.0,90,0.00,BKN,,0.00,WeatherDisplay:10.37,2013-08-27 10:57:00,
2013-08-27 06:59:00,66.5,63.5,30.15,South,189,0.0,0.0,90,0.00,BKN,,0.00,WeatherDisplay:10.37,2013-08-27 10:59:00,
2013-08-27 07:00:00,66.5,63.5,30.15,South,188,0.0,0.0,90,0.00,BKN,,0.00,WeatherDisplay:10.37,2013-08-27 11:00:00,
2013-08-27 07:01:00,66.5,63.5,30.15,South,189,0.0,0.0,90,0.00,SCT,,0.00,WeatherDisplay:10.37,2013-08-27 11:01:00,
2013-08-27 07:02:00,66.5,63.8,30.14,South,189,0.0,0.0,91,0.00,SCT,,0.00,WeatherDisplay:10.37,2013-08-27 11:02:00,
2013-08-27 07:04:00,66.5,63.5,30.14,South,189,0.0,0.0,90,0.00,SCT,,0.00,WeatherDisplay:10.37,2013-08-27 11:04:00,
2013-08-27 07:05:00,66.5,63.5,30.14,South,189,0.0,0.0,90,0.00,SCT,,0.00,WeatherDisplay:10.37,2013-08-27 11:05:00,
2013-08-27 07:06:00,66.5,63.5,30.14,South,189,0.0,0.0,90,0.00,SCT,,0.00,WeatherDisplay:10.37,2013-08-27 11:06:00,
2013-08-27 07:08:00,66.5,63.5,30.14,South,189,0.0,0.0,90,0.00,SCT,,0.00,WeatherDisplay:10.37,2013-08-27 11:08:00,
2013-08-27 07:09:00,66.5,63.2,30.14,South,189,0.0,0.0,89,0.00,SCT,,0.00,WeatherDisplay:10.37,2013-08-27 11:09:00,
2013-08-27 07:10:00,66.4,63.1,30.14,South,189,0.0,0.0,89,0.00,SCT,,0.00,WeatherDisplay:10.37,2013-08-27 11:10:00,
2013-08-27 07:11:00,66.4,63.4,30.14,South,189,0.0,0.0,90,0.00,SCT,,0.00,WeatherDisplay:10.37,2013-08-27 11:11:00,
2013-08-27 07:13:00,66.4,63.4,30.14,South,189,0.0,0.0,90,0.00,SCT,,0.00,WeatherDisplay:10.37,2013-08-27 11:13:00,
2013-08-27 07:15:00,66.4,63.4,30.14,South,189,0.0,0.0,90,0.00,SCT,,0.00,WeatherDisplay:10.37,2013-08-27 11:15:00,
2013-08-27 07:16:00,66.4,63.4,30.14,South,189,0.0,0.0,90,0.00,SCT,,0.00,WeatherDisplay:10.37,2013-08-27 11:16:00,
2013-08-27 07:17:00,66.4,63.4,30.14,South,189,0.0,0.0,90,0.00,SCT,,0.00,WeatherDisplay:10.37,2013-08-27 11:17:00,
2013-08-27 07:18:00,66.4,63.4,30.14,South,189,0.0,0.0,90,0.00,SCT,,0.00,WeatherDisplay:10.37,2013-08-27 11:18:00,
2013-08-27 07:20:00,66.4,63.4,30.15,South,189,0.0,0.0,90,0.00,SCT,,0.00,WeatherDisplay:10.37,2013-08-27 11:20:00,
2013-08-27 07:21:00,66.4,63.4,30.15,South,189,0.0,0.0,90,0.00,SCT,,0.00,WeatherDisplay:10.37,2013-08-27 11:21:00,
2013-08-27 07:22:00,66.4,63.4,30.15,South,188,0.0,0.0,90,0.00,SCT,,0.00,WeatherDisplay:10.37,2013-08-27 11:22:00,
2013-08-27 07:23:00,66.4,63.4,30.15,South,189,0.0,0.0,90,0.00,SCT,,0.00,WeatherDisplay:10.37,2013-08-27 11:23:00,
2013-08-27 07:25:00,66.4,63.4,30.15,South,189,0.0,0.0,90,0.00,SCT,,0.00,WeatherDisplay:10.37,2013-08-27 11:25:00,
2013-08-27 07:26:00,66.4,63.4,30.15,South,189,0.0,0.0,90,0.00,SCT,,0.00,WeatherDisplay:10.37,2013-08-27 11:26:00,
2013-08-27 07:27:00,66.4,63.4,30.15,South,189,0.0,0.0,90,0.00,SCT,,0.00,WeatherDisplay:10.37,2013-08-27 11:27:00,
2013-08-27 07:28:00,66.4,63.7,30.15,South,189,0.0,0.0,91,0.00,SCT,,0.00,WeatherDisplay:10.37,2013-08-27 11:28:00,
2013-08-27 07:30:00,66.5,63.5,30.15,South,189,0.0,0.0,90,0.00,SCT,,0.00,WeatherDisplay:10.37,2013-08-27 11:30:00,
2013-08-27 07:31:00,66.5,63.5,30.15,South,188,0.0,0.0,90,0.00,SCT,,0.00,WeatherDisplay:10.37,2013-08-27 11:31:00,
2013-08-27 07:32:00,66.5,63.8,30.15,South,189,0.0,0.0,91,0.00,SCT,,0.00,WeatherDisplay:10.37,2013-08-27 11:32:00,
2013-08-27 07:33:00,66.5,63.8,30.15,South,189,0.0,0.0,91,0.00,SCT,,0.00,WeatherDisplay:10.37,2013-08-27 11:33:00,
2013-08-27 07:36:00,66.6,63.9,30.15,South,189,0.0,0.0,91,0.00,SCT,,0.00,WeatherDisplay:10.37,2013-08-27 11:36:00,
2013-08-27 07:37:00,66.7,64.0,30.15,South,188,0.0,0.0,91,0.00,SCT,,0.00,WeatherDisplay:10.37,2013-08-27 11:37:00,
2013-08-27 07:38:00,66.7,64.0,30.15,South,189,0.0,0.0,91,0.00,SCT,,0.00,WeatherDisplay:10.37,2013-08-27 11:38:00,
2013-08-27 07:41:00,66.8,64.1,30.15,South,189,0.0,0.0,91,0.00,SCT,,0.00,WeatherDisplay:10.37,2013-08-27 11:41:00,
2013-08-27 07:42:00,66.8,64.1,30.15,South,189,0.0,0.0,91,0.00,SCT,,0.00,WeatherDisplay:10.37,2013-08-27 11:42:00,
2013-08-27 07:43:00,66.8,64.1,30.15,South,189,0.0,0.0,91,0.00,SCT,,0.00,WeatherDisplay:10.37,2013-08-27 11:43:00,
2013-08-27 07:46:00,66.9,64.2,30.15,South,189,0.0,0.0,91,0.00,SCT,,0.00,WeatherDisplay:10.37,2013-08-27 11:46:00,
2013-08-27 07:47:00,66.9,64.2,30.15,South,189,0.0,0.0,91,0.00,SCT,,0.00,WeatherDisplay:10.37,2013-08-27 11:47:00,
2013-08-27 07:49:00,67.0,64.3,30.15,South,189,0.0,0.0,91,0.00,SCT,,0.00,WeatherDisplay:10.37,2013-08-27 11:49:00,
2013-08-27 07:51:00,67.0,64.3,30.15,South,189,0.0,0.0,91,0.00,SCT,,0.00,WeatherDisplay:10.37,2013-08-27 11:51:00,
2013-08-27 07:52:00,67.0,64.3,30.15,South,188,0.0,0.0,91,0.00,SCT,,0.00,WeatherDisplay:10.37,2013-08-27 11:52:00,
2013-08-27 07:53:00,67.0,64.3,30.15,South,189,0.0,0.0,91,0.00,SCT,,0.00,WeatherDisplay:10.37,2013-08-27 11:53:00,
2013-08-27 07:54:00,67.0,64.3,30.15,South,189,0.0,0.0,91,0.00,SCT,,0.00,WeatherDisplay:10.37,2013-08-27 11:54:00,
2013-08-27 07:56:00,67.1,64.4,30.15,South,188,0.0,0.0,91,0.00,SCT,,0.00,WeatherDisplay:10.37,2013-08-27 11:56:00,
2013-08-27 07:57:00,67.1,64.4,30.15,South,189,0.0,0.0,91,0.00,SCT,,0.00,WeatherDisplay:10.37,2013-08-27 11:57:00,
2013-08-27 07:58:00,67.1,64.4,30.15,South,189,0.0,0.0,91,0.00,SCT,,0.00,WeatherDisplay:10.37,2013-08-27 11:58:00,
2013-08-27 07:59:00,67.1,64.4,30.15,South,188,0.0,0.0,91,0.00,SCT,,0.00,WeatherDisplay:10.37,2013-08-27 11:59:00,
2013-08-27 08:01:00,67.1,64.4,30.15,South,189,0.0,0.0,91,0.00,SCT,,0.00,WeatherDisplay:10.37,2013-08-27 12:01:00,
2013-08-27 08:02:00,67.1,64.4,30.15,South,189,0.0,0.0,91,0.00,SCT,,0.00,WeatherDisplay:10.37,2013-08-27 12:02:00,
2013-08-27 08:03:00,67.2,64.5,30.15,South,188,0.0,0.0,91,0.00,SCT,,0.00,WeatherDisplay:10.37,2013-08-27 12:03:00,
2013-08-27 08:04:00,67.3,64.6,30.16,South,189,0.0,0.0,91,0.00,SCT,,0.00,WeatherDisplay:10.37,2013-08-27 12:04:00,
2013-08-27 08:06:00,67.3,64.6,30.16,South,188,0.0,0.0,91,0.00,SCT,,0.00,WeatherDisplay:10.37,2013-08-27 12:06:00,
2013-08-27 08:07:00,67.3,64.6,30.15,South,189,0.0,0.0,91,0.00,SCT,,0.00,WeatherDisplay:10.37,2013-08-27 12:07:00,
2013-08-27 08:08:00,67.3,64.6,30.15,South,189,0.0,0.0,91,0.00,SCT,,0.00,WeatherDisplay:10.37,2013-08-27 12:08:00,
2013-08-27 08:09:00,67.4,64.7,30.15,South,189,0.0,0.0,91,0.00,SCT,,0.00,WeatherDisplay:10.37,2013-08-27 12:09:00,
2013-08-27 08:11:00,67.4,64.7,30.16,South,189,0.0,0.0,91,0.00,SCT,,0.00,WeatherDisplay:10.37,2013-08-27 12:11:00,
2013-08-27 08:12:00,67.5,64.8,30.16,South,189,0.0,0.0,91,0.00,SCT,,0.00,WeatherDisplay:10.37,2013-08-27 12:12:00,
2013-08-27 08:13:00,67.5,64.8,30.16,South,189,0.0,0.0,91,0.00,SCT,,0.00,WeatherDisplay:10.37,2013-08-27 12:13:00,
2013-08-27 08:14:00,67.5,65.1,30.16,South,188,0.0,0.0,92,0.00,SCT,,0.00,WeatherDisplay:10.37,2013-08-27 12:14:00,
2013-08-27 08:15:00,67.5,64.8,30.15,South,189,0.0,0.0,91,0.00,SCT,,0.00,WeatherDisplay:10.37,2013-08-27 12:15:00,
2013-08-27 08:17:00,67.6,64.9,30.15,South,189,0.0,0.0,91,0.00,SCT,,0.00,WeatherDisplay:10.37,2013-08-27 12:17:00,
2013-08-27 08:18:00,67.6,64.9,30.15,South,189,0.0,0.0,91,0.00,SCT,,0.00,WeatherDisplay:10.37,2013-08-27 12:18:00,
2013-08-27 08:19:00,67.7,65.3,30.16,South,189,0.0,0.0,92,0.00,SCT,,0.00,WeatherDisplay:10.37,2013-08-27 12:19:00,
2013-08-27 08:20:00,67.7,65.3,30.15,South,189,0.0,0.0,92,0.00,SCT,,0.00,WeatherDisplay:10.37,2013-08-27 12:20:00,
2013-08-27 08:22:00,67.8,65.1,30.16,South,189,0.0,0.0,91,0.00,SCT,,0.00,WeatherDisplay:10.37,2013-08-27 12:22:00,
2013-08-27 08:23:00,67.8,65.1,30.16,South,188,0.0,0.0,91,0.00,SCT,,0.00,WeatherDisplay:10.37,2013-08-27 12:23:00,
2013-08-27 08:24:00,67.8,65.1,30.16,South,188,0.0,0.0,91,0.00,SCT,,0.00,WeatherDisplay:10.37,2013-08-27 12:24:00,
2013-08-27 08:25:00,67.8,65.1,30.16,South,188,0.0,0.0,91,0.00,SCT,,0.00,WeatherDisplay:10.37,2013-08-27 12:25:00,
2013-08-27 08:28:00,68.0,65.6,30.16,South,188,0.0,0.0,92,0.00,SCT,,0.00,WeatherDisplay:10.37,2013-08-27 12:28:00,
2013-08-27 08:30:00,68.1,65.7,30.16,South,188,0.0,0.0,92,0.00,SCT,,0.00,WeatherDisplay:10.37,2013-08-27 12:30:00,
2013-08-27 08:33:00,68.2,65.8,30.16,South,188,0.0,0.0,92,0.00,SCT,,0.00,WeatherDisplay:10.37,2013-08-27 12:33:00,
2013-08-27 08:35:00,68.3,65.9,30.16,South,188,0.0,0.0,92,0.00,SCT,,0.00,WeatherDisplay:10.37,2013-08-27 12:35:00,
2013-08-27 08:38:00,68.4,66.0,30.16,South,188,0.0,0.0,92,0.00,SCT,,0.00,WeatherDisplay:10.37,2013-08-27 12:38:00,
2013-08-27 08:39:00,68.4,66.0,30.16,South,188,0.0,0.0,92,0.00,SCT,,0.00,WeatherDisplay:10.37,2013-08-27 12:39:00,
2013-08-27 08:40:00,68.4,65.7,30.16,South,188,0.0,0.0,91,0.00,SCT,,0.00,WeatherDisplay:10.37,2013-08-27 12:40:00,
2013-08-27 08:41:00,68.4,65.7,30.16,South,188,0.0,0.0,91,0.00,SCT,,0.00,WeatherDisplay:10.37,2013-08-27 12:41:00,
2013-08-27 08:43:00,68.5,65.8,30.16,South,188,0.0,0.0,91,0.00,SCT,,0.00,WeatherDisplay:10.37,2013-08-27 12:43:00,
2013-08-27 08:44:00,68.5,65.8,30.16,South,187,0.0,0.0,91,0.00,SCT,,0.00,WeatherDisplay:10.37,2013-08-27 12:44:00,
2013-08-27 08:46:00,68.6,65.9,30.16,South,188,0.0,0.0,91,0.00,SCT,,0.00,WeatherDisplay:10.37,2013-08-27 12:46:00,
2013-08-27 08:49:00,68.8,66.4,30.16,South,188,0.0,0.0,92,0.00,SCT,,0.00,WeatherDisplay:10.37,2013-08-27 12:49:00,
2013-08-27 08:51:00,68.8,66.1,30.16,South,188,0.0,0.0,91,0.00,SCT,,0.00,WeatherDisplay:10.37,2013-08-27 12:51:00,
2013-08-27 08:54:00,68.9,66.2,30.15,South,188,0.0,0.0,91,0.00,SCT,,0.00,WeatherDisplay:10.37,2013-08-27 12:54:00,
2013-08-27 08:55:00,69.0,66.3,30.15,South,188,0.0,0.0,91,0.00,SCT,,0.00,WeatherDisplay:10.37,2013-08-27 12:55:00,
2013-08-27 08:56:00,69.0,66.3,30.16,South,188,0.0,0.0,91,0.00,SCT,,0.00,WeatherDisplay:10.37,2013-08-27 12:56:00,
2013-08-27 08:59:00,69.2,66.5,30.15,South,187,0.0,0.0,91,0.00,SCT,,0.00,WeatherDisplay:10.37,2013-08-27 12:59:00,
2013-08-27 09:00:00,69.2,66.5,30.16,South,188,0.0,0.0,91,0.00,SCT,,0.00,WeatherDisplay:10.37,2013-08-27 13:00:00,
2013-08-27 09:01:00,69.2,66.5,30.16,South,188,0.1,1.1,91,0.00,BKN,,0.00,WeatherDisplay:10.37,2013-08-27 13:01:00,
2013-08-27 09:02:00,69.3,66.6,30.16,South,188,0.0,0.0,91,0.00,BKN,,0.00,WeatherDisplay:10.37,2013-08-27 13:02:00,
2013-08-27 09:04:00,69.5,67.1,30.16,South,188,0.0,0.0,92,0.00,BKN,,0.00,WeatherDisplay:10.37,2013-08-27 13:04:00,
2013-08-27 09:05:00,69.5,66.8,30.16,South,188,0.0,0.0,91,0.00,BKN,,0.00,WeatherDisplay:10.37,2013-08-27 13:05:00,
2013-08-27 09:06:00,69.5,67.1,30.16,South,188,0.0,0.0,92,0.00,BKN,,0.00,WeatherDisplay:10.37,2013-08-27 13:06:00,
2013-08-27 09:07:00,69.6,66.9,30.16,South,188,0.0,0.0,91,0.00,BKN,,0.00,WeatherDisplay:10.37,2013-08-27 13:07:00,
2013-08-27 09:09:00,69.7,67.0,30.15,South,187,0.0,0.0,91,0.00,BKN,,0.00,WeatherDisplay:10.37,2013-08-27 13:09:00,
2013-08-27 09:10:00,69.8,67.1,30.15,South,188,0.0,0.0,91,0.00,BKN,,0.00,WeatherDisplay:10.37,2013-08-27 13:10:00,
2013-08-27 09:11:00,69.8,67.1,30.15,South,188,0.0,0.0,91,0.00,BKN,,0.00,WeatherDisplay:10.37,2013-08-27 13:11:00,
2013-08-27 09:12:00,69.8,67.1,30.15,SSW,196,2.9,5.8,91,0.00,BKN,,0.00,WeatherDisplay:10.37,2013-08-27 13:12:00,
2013-08-27 09:14:00,70.0,67.3,30.16,SW,223,3.0,5.8,91,0.00,BKN,,0.00,WeatherDisplay:10.37,2013-08-27 13:14:00,
2013-08-27 09:16:00,70.1,67.7,30.15,SW,236,1.3,4.6,92,0.00,BKN,,0.00,WeatherDisplay:10.37,2013-08-27 13:16:00,
2013-08-27 09:17:00,70.1,67.7,30.15,SW,229,3.6,4.6,92,0.00,BKN,,0.00,WeatherDisplay:10.37,2013-08-27 13:17:00,
2013-08-27 09:19:00,70.2,67.7,30.15,SW,225,0.0,6.0,92,0.00,BKN,,0.00,WeatherDisplay:10.37,2013-08-27 13:19:00,
2013-08-27 09:21:00,70.2,67.8,30.15,SSW,198,1.3,6.0,92,0.00,BKN,,0.00,WeatherDisplay:10.37,2013-08-27 13:21:00,
2013-08-27 09:23:00,70.3,67.9,30.15,SSW,200,4.6,8.1,92,0.00,BKN,,0.00,WeatherDisplay:10.37,2013-08-27 13:23:00,
2013-08-27 09:24:00,70.4,67.6,30.15,South,189,4.1,5.8,91,0.00,BKN,,0.00,WeatherDisplay:10.37,2013-08-27 13:24:00,
2013-08-27 09:26:00,70.5,67.7,30.15,WSW,244,1.6,5.8,91,0.00,BKN,,0.00,WeatherDisplay:10.37,2013-08-27 13:26:00,
2013-08-27 09:27:00,70.5,67.7,30.15,SW,234,3.4,6.0,91,0.00,BKN,,0.00,WeatherDisplay:10.37,2013-08-27 13:27:00,
2013-08-27 09:28:00,70.6,67.8,30.15,SSW,207,2.4,5.8,91,0.00,BKN,,0.00,WeatherDisplay:10.37,2013-08-27 13:28:00,
2013-08-27 09:29:00,70.6,67.8,30.15,SSW,200,4.5,6.0,91,0.00,BKN,,0.00,WeatherDisplay:10.37,2013-08-27 13:29:00,
2013-08-27 09:31:00,70.6,67.8,30.15,SSW,200,1.6,4.6,91,0.00,BKN,,0.00,WeatherDisplay:10.37,2013-08-27 13:31:00,
2013-08-27 09:32:00,70.7,67.9,30.15,SSW,196,1.9,5.8,91,0.00,BKN,,0.00,WeatherDisplay:10.37,2013-08-27 13:32:00,
2013-08-27 09:34:00,70.8,68.0,30.15,SSW,211,4.1,5.8,91,0.00,BKN,,0.00,WeatherDisplay:10.37,2013-08-27 13:34:00,
2013-08-27 09:37:00,70.9,68.1,30.15,SSW,195,0.0,0.0,91,0.00,BKN,,0.00,WeatherDisplay:10.37,2013-08-27 13:37:00,
2013-08-27 09:39:00,71.0,68.2,30.16,SSW,192,1.4,5.8,91,0.00,BKN,,0.00,WeatherDisplay:10.37,2013-08-27 13:39:00,
2013-08-27 09:40:00,71.0,68.2,30.16,SSW,209,2.7,4.6,91,0.00,BKN,,0.00,WeatherDisplay:10.37,2013-08-27 13:40:00,
2013-08-27 09:42:00,71.1,68.0,30.15,South,190,3.7,5.8,90,0.00,BKN,,0.00,WeatherDisplay:10.37,2013-08-27 13:42:00,
2013-08-27 09:44:00,71.2,68.1,30.16,SSW,192,3.1,5.8,90,0.00,BKN,,0.00,WeatherDisplay:10.37,2013-08-27 13:44:00,
2013-08-27 09:45:00,71.2,68.1,30.15,SW,214,3.7,5.0,90,0.00,BKN,,0.00,WeatherDisplay:10.37,2013-08-27 13:45:00,
2013-08-27 09:47:00,71.4,68.6,30.16,SSW,203,0.0,0.0,91,0.00,BKN,,0.00,WeatherDisplay:10.37,2013-08-27 13:47:00,
2013-08-27 09:49:00,71.5,68.7,30.16,SSW,192,1.2,3.0,91,0.00,BKN,,0.00,WeatherDisplay:10.37,2013-08-27 13:49:00,
2013-08-27 09:50:00,71.6,68.5,30.16,SSW,193,2.8,5.8,90,0.00,BKN,,0.00,WeatherDisplay:10.37,2013-08-27 13:50:00,
2013-08-27 09:52:00,71.6,68.5,30.15,South,189,2.8,4.6,90,0.00,BKN,,0.00,WeatherDisplay:10.37,2013-08-27 13:52:00,
2013-08-27 09:53:00,71.6,68.5,30.15,SSW,199,2.8,6.0,90,0.00,BKN,,0.00,WeatherDisplay:10.37,2013-08-27 13:53:00,
2013-08-27 09:54:00,71.7,68.3,30.15,South,187,0.6,4.6,89,0.00,BKN,,0.00,WeatherDisplay:10.37,2013-08-27 13:54:00,
2013-08-27 09:55:00,71.7,68.6,30.15,SSW,198,1.5,4.6,90,0.00,BKN,,0.00,WeatherDisplay:10.37,2013-08-27 13:55:00,
2013-08-27 09:57:00,71.9,68.8,30.15,SW,230,0.0,3.5,90,0.00,BKN,,0.00,WeatherDisplay:10.37,2013-08-27 13:57:00,
2013-08-27 09:58:00,71.9,68.5,30.15,SW,229,0.0,0.0,89,0.00,BKN,,0.00,WeatherDisplay:10.37,2013-08-27 13:58:00,
2013-08-27 09:59:00,72.0,68.6,30.15,SW,221,2.0,3.5,89,0.00,BKN,,0.00,WeatherDisplay:10.37,2013-08-27 13:59:00,
2013-08-27 10:00:00,72.1,69.0,30.15,SW,221,0.1,3.5,90,0.00,BKN,,0.00,WeatherDisplay:10.37,2013-08-27 14:00:00,
2013-08-27 10:03:00,72.2,68.8,30.15,WSW,240,2.6,5.8,89,0.00,BKN,,0.00,WeatherDisplay:10.37,2013-08-27 14:03:00,
2013-08-27 10:04:00,72.3,68.9,30.15,SSW,200,1.8,4.6,89,0.00,BKN,,0.00,WeatherDisplay:10.37,2013-08-27 14:04:00,
2013-08-27 10:05:00,72.3,68.9,30.15,WSW,242,0.0,3.5,89,0.00,BKN,,0.00,WeatherDisplay:10.37,2013-08-27 14:05:00,
2013-08-27 10:08:00,72.6,69.2,30.15,South,190,1.3,5.8,89,0.00,BKN,,0.00,WeatherDisplay:10.37,2013-08-27 14:08:00,
2013-08-27 10:09:00,72.6,69.2,30.15,South,187,0.2,3.5,89,0.00,BKN,,0.00,WeatherDisplay:10.37,2013-08-27 14:09:00,
2013-08-27 10:10:00,72.6,69.2,30.15,South,189,0.7,3.5,89,0.00,BKN,,0.00,WeatherDisplay:10.37,2013-08-27 14:10:00,
2013-08-27 10:13:00,72.9,68.8,30.15,SW,221,0.0,1.1,87,0.00,BKN,,0.00,WeatherDisplay:10.37,2013-08-27 14:13:00,
2013-08-27 10:14:00,73.0,68.9,30.15,SW,223,0.0,0.0,87,0.00,BKN,,0.00,WeatherDisplay:10.37,2013-08-27 14:14:00,
2013-08-27 10:15:00,73.0,68.9,30.15,SW,236,0.5,3.5,87,0.00,BKN,,0.00,WeatherDisplay:10.37,2013-08-27 14:15:00,
2013-08-27 10:16:00,73.1,69.3,30.15,SW,236,0.0,2.3,88,0.00,BKN,,0.00,WeatherDisplay:10.37,2013-08-27 14:16:00,
2013-08-27 10:18:00,73.3,73.3,30.15,WSW,239,0.1,0.0,100,0.00,BKN,,0.00,WeatherDisplay:10.37,2013-08-27 14:18:00,
2013-08-27 10:19:00,73.4,69.3,30.15,SW,234,0.0,1.1,87,0.00,BKN,,0.00,WeatherDisplay:10.37,2013-08-27 14:19:00,
2013-08-27 10:20:00,73.4,69.3,30.15,SW,234,0.0,0.0,87,0.00,BKN,,0.00,WeatherDisplay:10.37,2013-08-27 14:20:00,
2013-08-27 10:21:00,73.5,69.4,30.15,SW,235,0.0,1.1,87,0.00,BKN,,0.00,WeatherDisplay:10.37,2013-08-27 14:21:00,
2013-08-27 10:23:00,73.6,69.5,30.15,SW,235,0.0,1.1,87,0.00,BKN,,0.00,WeatherDisplay:10.37,2013-08-27 14:23:00,
2013-08-27 10:25:00,73.7,69.6,30.15,SW,235,0.0,0.0,87,0.00,BKN,,0.00,WeatherDisplay:10.37,2013-08-27 14:25:00,
2013-08-27 10:26:00,73.8,69.7,30.15,SW,235,0.0,0.0,87,0.00,BKN,,0.00,WeatherDisplay:10.37,2013-08-27 14:26:00,
2013-08-27 10:28:00,74.0,69.9,30.15,SW,234,0.0,0.0,87,0.00,BKN,,0.00,WeatherDisplay:10.37,2013-08-27 14:28:00,
2013-08-27 10:30:00,74.1,70.0,30.15,SW,235,0.0,0.0,87,0.00,BKN,,0.00,WeatherDisplay:10.37,2013-08-27 14:30:00,
2013-08-27 10:31:00,74.1,70.0,30.15,SW,235,0.1,1.1,87,0.00,BKN,,0.00,WeatherDisplay:10.37,2013-08-27 14:31:00,
2013-08-27 10:33:00,74.3,70.2,30.15,SW,234,0.0,0.0,87,0.00,BKN,,0.00,WeatherDisplay:10.37,2013-08-27 14:33:00,
2013-08-27 10:35:00,74.3,69.8,30.15,SW,234,0.0,0.0,86,0.00,BKN,,0.00,WeatherDisplay:10.37,2013-08-27 14:35:00,
2013-08-27 10:36:00,74.3,69.1,30.15,SW,235,0.0,0.0,84,0.00,BKN,,0.00,WeatherDisplay:10.37,2013-08-27 14:36:00,
2013-08-27 10:39:00,74.4,69.9,30.15,SW,232,0.0,0.0,86,0.00,BKN,,0.00,WeatherDisplay:10.37,2013-08-27 14:39:00,
2013-08-27 10:40:00,74.6,70.5,30.15,SW,232,0.0,0.0,87,0.00,BKN,,0.00,WeatherDisplay:10.37,2013-08-27 14:40:00,
2013-08-27 10:41:00,74.7,70.6,30.15,SW,232,0.0,0.0,87,0.00,BKN,,0.00,WeatherDisplay:10.37,2013-08-27 14:41:00,
2013-08-27 10:42:00,74.8,70.3,30.15,SW,232,0.0,0.0,86,0.00,BKN,,0.00,WeatherDisplay:10.37,2013-08-27 14:42:00,
2013-08-27 10:44:00,74.9,70.1,30.16,SW,232,0.0,0.0,85,0.00,BKN,,0.00,WeatherDisplay:10.37,2013-08-27 14:44:00,
2013-08-27 10:45:00,75.1,69.9,30.16,SW,232,0.0,0.0,84,0.00,BKN,,0.00,WeatherDisplay:10.37,2013-08-27 14:45:00,
2013-08-27 10:46:00,75.1,70.3,30.16,SW,232,0.0,0.0,85,0.00,BKN,,0.00,WeatherDisplay:10.37,2013-08-27 14:46:00,
2013-08-27 10:47:00,75.2,70.4,30.15,SSW,194,0.1,0.0,85,0.00,BKN,,0.00,WeatherDisplay:10.37,2013-08-27 14:47:00,
2013-08-27 10:49:00,75.4,70.6,30.15,SSW,193,0.0,1.1,85,0.00,BKN,,0.00,WeatherDisplay:10.37,2013-08-27 14:49:00,
2013-08-27 10:51:00,75.6,70.8,30.15,SSW,192,0.0,0.0,85,0.00,BKN,,0.00,WeatherDisplay:10.37,2013-08-27 14:51:00,
2013-08-27 10:52:00,75.8,71.0,30.15,SSW,192,0.0,0.0,85,0.00,BKN,,0.00,WeatherDisplay:10.37,2013-08-27 14:52:00,
2013-08-27 10:54:00,76.3,71.5,30.15,SSW,192,0.0,0.0,85,0.00,BKN,,0.00,WeatherDisplay:10.37,2013-08-27 14:54:00,
2013-08-27 10:56:00,76.4,70.9,30.15,SSW,192,0.0,0.0,83,0.00,BKN,,0.00,WeatherDisplay:10.37,2013-08-27 14:56:00,
2013-08-27 10:57:00,76.6,71.4,30.15,SSW,192,0.0,0.0,84,0.00,BKN,,0.00,WeatherDisplay:10.37,2013-08-27 14:57:00,
2013-08-27 10:59:00,76.9,71.3,30.15,SSW,192,0.1,1.1,83,0.00,BKN,,0.00,WeatherDisplay:10.37,2013-08-27 14:59:00,
2013-08-27 11:01:00,77.0,70.7,30.15,SSW,193,0.0,0.0,81,0.00,BKN,,0.00,WeatherDisplay:10.37,2013-08-27 15:01:00,
2013-08-27 11:02:00,77.1,70.8,30.15,SSW,193,0.0,0.0,81,0.00,BKN,,0.00,WeatherDisplay:10.37,2013-08-27 15:02:00,
2013-08-27 11:04:00,77.2,70.2,30.15,WSW,246,0.1,1.1,79,0.00,BKN,,0.00,WeatherDisplay:10.37,2013-08-27 15:04:00,
2013-08-27 11:07:00,77.3,70.3,30.15,WSW,246,0.0,0.0,79,0.00,BKN,,0.00,WeatherDisplay:10.37,2013-08-27 15:07:00,
2013-08-27 11:10:00,77.6,70.9,30.15,SW,224,0.0,0.0,80,0.00,BKN,,0.00,WeatherDisplay:10.37,2013-08-27 15:10:00,
2013-08-27 11:12:00,77.8,71.5,30.15,South,178,0.0,0.0,81,0.00,BKN,,0.00,WeatherDisplay:10.37,2013-08-27 15:12:00,
2013-08-27 11:15:00,78.2,71.5,30.15,SSW,206,3.9,5.8,80,0.00,BKN,,0.00,WeatherDisplay:10.37,2013-08-27 15:15:00,
2013-08-27 11:17:00,78.3,70.5,30.15,West,274,0.2,3.5,77,0.00,BKN,,0.00,WeatherDisplay:10.37,2013-08-27 15:17:00,
2013-08-27 11:18:00,78.3,70.5,30.15,West,262,0.0,0.0,77,0.00,BKN,,0.00,WeatherDisplay:10.37,2013-08-27 15:18:00,
2013-08-27 11:20:00,78.4,71.0,30.15,ESE,122,0.0,0.0,78,0.00,BKN,,0.00,WeatherDisplay:10.37,2013-08-27 15:20:00,
2013-08-27 11:22:00,78.4,71.0,30.15,SSE,164,0.0,0.0,78,0.00,BKN,,0.00,WeatherDisplay:10.37,2013-08-27 15:22:00,
2013-08-27 11:23:00,78.5,71.4,30.15,SE,125,0.0,0.0,79,0.00,BKN,,0.00,WeatherDisplay:10.37,2013-08-27 15:23:00,
2013-08-27 11:25:00,78.6,71.9,30.15,SE,125,0.0,0.0,80,0.00,BKN,,0.00,WeatherDisplay:10.37,2013-08-27 15:25:00,
2013-08-27 11:27:00,78.8,70.6,30.15,NNE,14,0.0,0.0,76,0.00,BKN,,0.00,WeatherDisplay:10.37,2013-08-27 15:27:00,
2013-08-27 11:28:00,78.8,70.6,30.15,NNE,13,0.0,0.0,76,0.00,BKN,,0.00,WeatherDisplay:10.37,2013-08-27 15:28:00,
2013-08-27 11:30:00,78.8,71.4,30.15,NW,306,0.0,0.0,78,0.00,BKN,,0.00,WeatherDisplay:10.37,2013-08-27 15:30:00,
2013-08-27 11:32:00,78.7,69.7,30.15,WNW,294,0.0,0.0,74,0.00,BKN,,0.00,WeatherDisplay:10.37,2013-08-27 15:32:00,
2013-08-27 11:33:00,78.6,70.0,30.15,NNW,336,0.1,1.1,75,0.00,BKN,,0.00,WeatherDisplay:10.37,2013-08-27 15:33:00,
2013-08-27 11:35:00,78.4,70.2,30.15,North,352,0.0,3.5,76,0.00,BKN,,0.00,WeatherDisplay:10.37,2013-08-27 15:35:00,
2013-08-27 11:38:00,78.2,70.0,30.15,West,264,0.0,0.0,76,0.00,BKN,,0.00,WeatherDisplay:10.37,2013-08-27 15:38:00,
2013-08-27 11:39:00,78.3,70.1,30.15,West,265,0.0,0.0,76,0.00,BKN,,0.00,WeatherDisplay:10.37,2013-08-27 15:39:00,
2013-08-27 11:41:00,78.4,70.2,30.15,WNW,291,0.0,0.0,76,0.00,BKN,,0.00,WeatherDisplay:10.37,2013-08-27 15:41:00,
2013-08-27 11:43:00,78.7,70.9,30.15,WNW,283,0.0,0.0,77,0.00,BKN,,0.00,WeatherDisplay:10.37,2013-08-27 15:43:00,
2013-08-27 11:45:00,78.9,71.1,30.15,NNW,337,0.0,0.0,77,0.00,BKN,,0.00,WeatherDisplay:10.37,2013-08-27 15:45:00,
2013-08-27 11:47:00,79.0,70.8,30.15,North,0,0.0,0.0,76,0.00,BKN,,0.00,WeatherDisplay:10.37,2013-08-27 15:47:00,
2013-08-27 11:48:00,79.0,70.8,30.15,NNW,328,2.6,3.0,76,0.00,BKN,,0.00,WeatherDisplay:10.37,2013-08-27 15:48:00,
2013-08-27 11:49:00,79.0,69.6,30.15,WNW,294,2.9,8.1,73,0.00,BKN,,0.00,WeatherDisplay:10.37,2013-08-27 15:49:00,
2013-08-27 11:50:00,79.0,70.0,30.15,WNW,288,0.0,2.3,74,0.00,BKN,,0.00,WeatherDisplay:10.37,2013-08-27 15:50:00,
2013-08-27 11:52:00,79.1,70.9,30.15,North,352,0.0,0.0,76,0.00,BKN,,0.00,WeatherDisplay:10.37,2013-08-27 15:52:00,
2013-08-27 11:53:00,79.1,70.9,30.14,North,352,0.1,0.0,76,0.00,BKN,,0.00,WeatherDisplay:10.37,2013-08-27 15:53:00,
2013-08-27 11:54:00,79.1,70.5,30.14,NNE,24,0.0,1.1,75,0.00,BKN,,0.00,WeatherDisplay:10.37,2013-08-27 15:54:00,
2013-08-27 11:55:00,79.1,70.9,30.15,North,358,0.0,0.0,76,0.00,BKN,,0.00,WeatherDisplay:10.37,2013-08-27 15:55:00,
2013-08-27 11:57:00,79.0,70.4,30.14,WSW,245,2.3,5.0,75,0.00,BKN,,0.00,WeatherDisplay:10.37,2013-08-27 15:57:00,
2013-08-27 11:58:00,78.9,70.3,30.14,West,279,6.0,7.0,75,0.00,BKN,,0.00,WeatherDisplay:10.37,2013-08-27 15:58:00,
2013-08-27 11:59:00,78.9,69.9,30.14,WNW,290,6.3,10.4,74,0.00,BKN,,0.00,WeatherDisplay:10.37,2013-08-27 15:59:00,
2013-08-27 12:00:00,78.9,70.3,30.14,West,272,0.5,4.6,75,0.00,BKN,,0.00,WeatherDisplay:10.37,2013-08-27 16:00:00,
2013-08-27 12:02:00,79.2,71.0,30.15,WNW,297,0.0,3.5,76,0.00,BKN,,0.00,WeatherDisplay:10.37,2013-08-27 16:02:00,
2013-08-27 12:03:00,79.4,71.2,30.15,NW,305,0.0,0.0,76,0.00,BKN,,0.00,WeatherDisplay:10.37,2013-08-27 16:03:00,
2013-08-27 12:04:00,79.5,71.3,30.14,NW,305,0.0,0.0,76,0.00,BKN,,0.00,WeatherDisplay:10.37,2013-08-27 16:04:00,
2013-08-27 12:05:00,79.7,71.5,30.14,NW,305,0.0,0.0,76,0.00,BKN,,0.00,WeatherDisplay:10.37,2013-08-27 16:05:00,
2013-08-27 12:08:00,80.0,71.0,30.14,NW,306,0.0,1.1,74,0.00,BKN,,0.00,WeatherDisplay:10.37,2013-08-27 16:08:00,
2013-08-27 12:09:00,80.1,71.8,30.14,NW,306,0.0,1.0,76,0.00,BKN,,0.00,WeatherDisplay:10.37,2013-08-27 16:09:00,
2013-08-27 12:10:00,80.1,71.1,30.14,WNW,290,0.6,3.0,74,0.00,BKN,,0.00,WeatherDisplay:10.37,2013-08-27 16:10:00,
2013-08-27 12:11:00,80.1,70.7,30.14,WNW,297,1.7,3.5,73,0.00,BKN,,0.00,WeatherDisplay:10.37,2013-08-27 16:11:00,
2013-08-27 12:13:00,79.9,70.9,30.14,WNW,297,0.0,0.0,74,0.00,BKN,,0.00,WeatherDisplay:10.37,2013-08-27 16:13:00,
2013-08-27 12:14:00,79.8,70.8,30.14,WNW,297,0.0,0.0,74,0.00,BKN,,0.00,WeatherDisplay:10.37,2013-08-27 16:14:00,
2013-08-27 12:15:00,79.7,71.5,30.14,WNW,297,0.5,0.0,76,0.00,BKN,,0.00,WeatherDisplay:10.37,2013-08-27 16:15:00,
2013-08-27 12:16:00,79.6,71.4,30.14,West,276,0.2,3.5,76,0.00,BKN,,0.00,WeatherDisplay:10.37,2013-08-27 16:16:00,
2013-08-27 12:18:00,79.3,70.7,30.14,WNW,298,0.7,2.3,75,0.00,BKN,,0.00,WeatherDisplay:10.37,2013-08-27 16:18:00,
2013-08-27 12:19:00,79.3,70.7,30.14,WNW,292,0.4,2.3,75,0.00,BKN,,0.00,WeatherDisplay:10.37,2013-08-27 16:19:00,
2013-08-27 12:20:00,79.1,70.5,30.14,WNW,302,1.9,6.9,75,0.00,BKN,,0.00,WeatherDisplay:10.37,2013-08-27 16:20:00,
2013-08-27 12:21:00,79.0,70.8,30.14,NW,305,0.1,4.6,76,0.00,BKN,,0.00,WeatherDisplay:10.37,2013-08-27 16:21:00,
2013-08-27 12:24:00,79.0,70.8,30.14,North,352,0.0,1.1,76,0.00,BKN,,0.00,WeatherDisplay:10.37,2013-08-27 16:24:00,
2013-08-27 12:26:00,78.9,70.7,30.14,NNW,346,0.0,0.0,76,0.00,BKN,,0.00,WeatherDisplay:10.37,2013-08-27 16:26:00,
2013-08-27 12:29:00,79.0,71.6,30.14,NNW,346,0.0,1.1,78,0.00,BKN,,0.00,WeatherDisplay:10.37,2013-08-27 16:29:00,
2013-08-27 12:31:00,79.3,71.1,30.14,NNW,346,0.0,0.0,76,0.00,BKN,,0.00,WeatherDisplay:10.37,2013-08-27 16:31:00,
2013-08-27 12:32:00,79.5,71.3,30.14,NNW,346,0.0,0.0,76,0.00,BKN,,0.00,WeatherDisplay:10.37,2013-08-27 16:32:00,
2013-08-27 12:34:00,79.9,71.3,30.14,NNW,346,0.2,3.0,75,0.00,BKN,,0.00,WeatherDisplay:10.37,2013-08-27 16:34:00,
2013-08-27 12:36:00,80.4,71.3,30.13,NNW,328,1.6,3.0,74,0.00,BKN,,0.00,WeatherDisplay:10.37,2013-08-27 16:36:00,
2013-08-27 12:37:00,80.4,70.5,30.13,NNW,338,3.6,7.0,72,0.00,BKN,,0.00,WeatherDisplay:10.37,2013-08-27 16:37:00,
2013-08-27 12:39:00,80.4,70.9,30.13,NNW,348,0.6,3.5,73,0.00,BKN,,0.00,WeatherDisplay:10.37,2013-08-27 16:39:00,
2013-08-27 12:41:00,80.5,71.4,30.13,West,259,0.9,3.5,74,0.00,BKN,,0.00,WeatherDisplay:10.37,2013-08-27 16:41:00,
2013-08-27 12:42:00,80.5,71.0,30.13,WNW,287,0.2,3.5,73,0.00,BKN,,0.00,WeatherDisplay:10.37,2013-08-27 16:42:00,
2013-08-27 12:44:00,80.5,71.0,30.13,WNW,287,0.0,1.1,73,0.00,BKN,,0.00,WeatherDisplay:10.37,2013-08-27 16:44:00,
2013-08-27 12:45:00,80.5,71.0,30.13,WNW,290,0.0,0.0,73,0.00,BKN,,0.00,WeatherDisplay:10.37,2013-08-27 16:45:00,
2013-08-27 12:46:00,80.6,71.5,30.13,NW,307,0.0,0.0,74,0.00,BKN,,0.00,WeatherDisplay:10.37,2013-08-27 16:46:00,
2013-08-27 12:48:00,80.6,71.1,30.13,NW,325,3.4,5.8,73,0.00,BKN,,0.00,WeatherDisplay:10.37,2013-08-27 16:48:00,
2013-08-27 12:49:00,80.6,71.1,30.13,NNW,329,0.2,3.5,73,0.00,BKN,,0.00,WeatherDisplay:10.37,2013-08-27 16:49:00,
2013-08-27 12:51:00,80.5,71.0,30.13,NNW,329,0.0,1.1,73,0.00,BKN,,0.00,WeatherDisplay:10.37,2013-08-27 16:51:00,
2013-08-27 12:53:00,80.3,71.3,30.13,NNW,339,2.0,6.9,74,0.00,BKN,,0.00,WeatherDisplay:10.37,2013-08-27 16:53:00,
2013-08-27 12:54:00,80.1,71.1,30.13,NNW,345,3.8,5.8,74,0.00,BKN,,0.00,WeatherDisplay:10.37,2013-08-27 16:54:00,
2013-08-27 12:55:00,80.1,71.5,30.13,North,353,3.7,5.8,75,0.00,BKN,,0.00,WeatherDisplay:10.37,2013-08-27 16:55:00,
2013-08-27 12:56:00,80.0,71.0,30.13,NNW,339,2.1,4.6,74,0.00,BKN,,0.00,WeatherDisplay:10.37,2013-08-27 16:56:00,
2013-08-27 12:58:00,79.9,70.9,30.13,North,353,2.0,4.6,74,0.00,BKN,,0.00,WeatherDisplay:10.37,2013-08-27 16:58:00,
2013-08-27 13:00:00,79.8,70.8,30.13,North,353,1.3,3.5,74,0.00,BKN,,0.00,WeatherDisplay:10.37,2013-08-27 17:00:00,
2013-08-27 13:01:00,79.7,71.1,30.13,North,349,3.2,4.6,75,0.00,BKN,,0.00,WeatherDisplay:10.37,2013-08-27 17:01:00,
2013-08-27 13:03:00,79.8,71.6,30.13,North,349,0.0,0.0,76,0.00,BKN,,0.00,WeatherDisplay:10.37,2013-08-27 17:03:00,
2013-08-27 13:05:00,79.8,71.6,30.13,North,349,0.0,0.0,76,0.00,BKN,,0.00,WeatherDisplay:10.37,2013-08-27 17:05:00,
2013-08-27 13:06:00,80.1,72.2,30.13,North,349,0.0,0.0,77,0.00,BKN,,0.00,WeatherDisplay:10.37,2013-08-27 17:06:00,
2013-08-27 13:08:00,80.8,80.8,30.13,North,353,0.0,0.0,100,0.00,BKN,,0.00,WeatherDisplay:10.37,2013-08-27 17:08:00,
2013-08-27 13:10:00,79.9,79.9,30.12,South,179,0.1,2.3,100,0.00,BKN,,0.00,WeatherDisplay:10.37,2013-08-27 17:10:00,
2013-08-27 13:11:00,80.8,80.8,30.12,South,189,0.1,1.1,100,0.00,BKN,,0.00,WeatherDisplay:10.37,2013-08-27 17:11:00,
2013-08-27 13:14:00,81.0,81.0,30.12,West,277,3.8,5.8,100,0.00,BKN,,0.00,WeatherDisplay:10.37,2013-08-27 17:14:00,
2013-08-27 13:16:00,80.8,80.8,30.12,NNW,348,2.0,5.8,100,0.00,BKN,,0.00,WeatherDisplay:10.37,2013-08-27 17:16:00,
2013-08-27 13:19:00,80.5,80.5,30.12,NNE,20,0.0,0.0,100,0.00,BKN,,0.00,WeatherDisplay:10.37,2013-08-27 17:19:00,
2013-08-27 13:21:00,80.4,80.4,30.12,WNW,301,1.7,3.5,100,0.00,BKN,,0.00,WeatherDisplay:10.37,2013-08-27 17:21:00,
2013-08-27 13:22:00,80.3,80.3,30.12,WNW,301,0.0,0.0,100,0.00,BKN,,0.00,WeatherDisplay:10.37,2013-08-27 17:22:00,
2013-08-27 13:24:00,80.1,80.1,30.12,WNW,284,0.0,0.0,100,0.00,BKN,,0.00,WeatherDisplay:10.37,2013-08-27 17:24:00,
2013-08-27 13:26:00,80.0,80.0,30.12,NW,322,0.0,1.1,100,0.00,BKN,,0.00,WeatherDisplay:10.37,2013-08-27 17:26:00,
2013-08-27 13:27:00,80.0,80.0,30.11,NW,322,0.0,0.0,100,0.00,BKN,,0.00,WeatherDisplay:10.37,2013-08-27 17:27:00,
2013-08-27 13:29:00,80.9,80.9,30.11,NNW,340,1.5,2.0,100,0.00,BKN,,0.00,WeatherDisplay:10.37,2013-08-27 17:29:00,
2013-08-27 13:31:00,81.0,81.0,30.11,NW,312,1.9,3.5,100,0.00,BKN,,0.00,WeatherDisplay:10.37,2013-08-27 17:31:00,
2013-08-27 13:32:00,81.1,81.1,30.11,NW,311,0.0,3.5,100,0.00,BKN,,0.00,WeatherDisplay:10.37,2013-08-27 17:32:00,
2013-08-27 13:34:00,81.6,81.6,30.11,NW,304,0.3,3.5,100,0.00,BKN,,0.00,WeatherDisplay:10.37,2013-08-27 17:34:00,
2013-08-27 13:36:00,82.0,82.0,30.11,WNW,283,0.9,3.5,100,0.00,BKN,,0.00,WeatherDisplay:10.37,2013-08-27 17:36:00,
2013-08-27 13:37:00,82.1,82.1,30.11,WSW,249,1.7,3.5,100,0.00,BKN,,0.00,WeatherDisplay:10.37,2013-08-27 17:37:00,
2013-08-27 13:40:00,82.8,82.8,30.11,WSW,241,0.1,1.1,100,0.00,BKN,,0.00,WeatherDisplay:10.37,2013-08-27 17:40:00,
2013-08-27 13:41:00,82.9,82.9,30.11,NNW,345,3.4,6.0,100,0.00,BKN,,0.00,WeatherDisplay:10.37,2013-08-27 17:41:00,
2013-08-27 13:42:00,81.3,81.3,30.11,NNW,335,5.4,6.9,100,0.00,BKN,,0.00,WeatherDisplay:10.37,2013-08-27 17:42:00,
2013-08-27 13:45:00,82.9,82.9,30.11,West,278,2.9,5.0,100,0.00,BKN,,0.00,WeatherDisplay:10.37,2013-08-27 17:45:00,
2013-08-27 13:47:00,82.8,82.8,30.11,NNW,334,5.6,9.2,100,0.00,BKN,,0.00,WeatherDisplay:10.37,2013-08-27 17:47:00,
2013-08-27 13:48:00,82.8,82.8,30.11,NNW,333,0.5,4.6,100,0.00,BKN,,0.00,WeatherDisplay:10.37,2013-08-27 17:48:00,
2013-08-27 13:50:00,82.8,82.8,30.11,NNW,337,0.6,3.5,100,0.00,BKN,,0.00,WeatherDisplay:10.37,2013-08-27 17:50:00,
2013-08-27 13:52:00,82.8,82.8,30.11,NNW,337,0.0,0.0,100,0.00,BKN,,0.00,WeatherDisplay:10.37,2013-08-27 17:52:00,
2013-08-27 13:53:00,83.1,83.1,30.11,North,355,1.3,0.0,100,0.00,BKN,,0.00,WeatherDisplay:10.37,2013-08-27 17:53:00,
2013-08-27 13:55:00,81.3,81.3,30.11,North,355,0.0,1.1,100,0.00,BKN,,0.00,WeatherDisplay:10.37,2013-08-27 17:55:00,
2013-08-27 13:57:00,84.1,72.4,30.11,North,355,0.0,1.1,68,0.00,BKN,,0.00,WeatherDisplay:10.37,2013-08-27 17:57:00,
2013-08-27 13:58:00,84.1,72.4,30.11,North,355,0.0,0.0,68,0.00,BKN,,0.00,WeatherDisplay:10.37,2013-08-27 17:58:00,
2013-08-27 14:00:00,84.0,73.2,30.11,North,351,0.7,2.3,70,0.00,BKN,,0.00,WeatherDisplay:10.37,2013-08-27 18:00:00,
2013-08-27 14:02:00,84.0,73.2,30.11,NNE,27,1.3,1.3,70,0.00,BKN,,0.00,WeatherDisplay:10.37,2013-08-27 18:02:00,
2013-08-27 14:03:00,84.0,72.7,30.11,NNE,27,0.8,3.5,69,0.00,BKN,,0.00,WeatherDisplay:10.37,2013-08-27 18:03:00,
2013-08-27 14:05:00,83.8,72.5,30.11,NNE,27,0.0,0.0,69,0.00,BKN,,0.00,WeatherDisplay:10.37,2013-08-27 18:05:00,
2013-08-27 14:08:00,83.8,73.4,30.10,NNE,27,0.1,0.0,71,0.00,BKN,,0.00,WeatherDisplay:10.37,2013-08-27 18:08:00,
2013-08-27 14:10:00,83.9,73.9,30.10,ENE,70,0.4,3.5,72,0.00,BKN,,0.00,WeatherDisplay:10.37,2013-08-27 18:10:00,
2013-08-27 14:13:00,84.3,74.3,30.10,ENE,63,0.3,1.1,72,0.00,BKN,,0.00,WeatherDisplay:10.37,2013-08-27 18:13:00,
2013-08-27 14:14:00,75.8,64.9,30.11,ENE,63,0.1,1.1,69,0.00,BKN,,0.00,WeatherDisplay:10.37,2013-08-27 18:14:00,
2013-08-27 14:15:00,76.5,64.7,30.10,ENE,63,0.0,1.1,67,0.00,BKN,,0.00,WeatherDisplay:10.37,2013-08-27 18:15:00,
2013-08-27 14:18:00,84.9,73.6,30.10,ESE,115,1.6,3.5,69,0.00,BKN,,0.00,WeatherDisplay:10.37,2013-08-27 18:18:00,
2013-08-27 14:19:00,83.4,71.7,30.10,ESE,115,0.8,3.5,68,0.00,BKN,,0.00,WeatherDisplay:10.37,2013-08-27 18:19:00,
2013-08-27 14:21:00,85.1,73.3,30.10,SE,131,1.3,3.5,68,0.00,BKN,,0.00,WeatherDisplay:10.37,2013-08-27 18:21:00,
2013-08-27 14:23:00,85.1,71.5,30.10,SE,145,0.0,0.0,64,0.00,BKN,,0.00,WeatherDisplay:10.37,2013-08-27 18:23:00,
2013-08-27 14:24:00,84.9,71.8,30.10,SE,145,0.0,0.0,65,0.00,BKN,,0.00,WeatherDisplay:10.37,2013-08-27 18:24:00,
2013-08-27 14:25:00,84.8,72.2,30.10,SE,145,0.0,0.0,66,0.00,BKN,,0.00,WeatherDisplay:10.37,2013-08-27 18:25:00,
2013-08-27 14:26:00,84.7,73.0,30.10,NE,47,0.2,1.1,68,0.00,BKN,,0.00,WeatherDisplay:10.37,2013-08-27 18:26:00,
2013-08-27 14:28:00,84.6,72.4,30.10,NE,43,0.0,0.0,67,0.00,BKN,,0.00,WeatherDisplay:10.37,2013-08-27 18:28:00,
2013-08-27 14:29:00,84.8,72.2,30.10,NE,43,0.0,0.0,66,0.00,BKN,,0.00,WeatherDisplay:10.37,2013-08-27 18:29:00,
2013-08-27 14:30:00,84.7,72.1,30.10,NE,43,0.0,0.0,66,0.00,BKN,,0.00,WeatherDisplay:10.37,2013-08-27 18:30:00,
2013-08-27 14:32:00,84.5,73.2,30.10,NE,43,0.0,0.0,69,0.00,BKN,,0.00,WeatherDisplay:10.37,2013-08-27 18:32:00,
2013-08-27 14:33:00,84.4,73.1,30.10,NE,43,0.0,0.0,69,0.00,BKN,,0.00,WeatherDisplay:10.37,2013-08-27 18:33:00,
2013-08-27 14:34:00,84.4,72.7,30.10,NE,43,0.0,0.0,68,0.00,BKN,,0.00,WeatherDisplay:10.37,2013-08-27 18:34:00,
2013-08-27 14:35:00,84.3,73.0,30.10,NE,43,0.0,0.0,69,0.00,BKN,,0.00,WeatherDisplay:10.37,2013-08-27 18:35:00,
2013-08-27 14:37:00,84.2,72.9,30.10,NE,43,0.0,0.0,69,0.00,BKN,,0.00,WeatherDisplay:10.37,2013-08-27 18:37:00,
2013-08-27 14:38:00,84.2,73.3,30.10,ENE,58,0.1,1.1,70,0.00,BKN,,0.00,WeatherDisplay:10.37,2013-08-27 18:38:00,
2013-08-27 14:39:00,84.1,73.3,30.10,ENE,69,0.8,2.0,70,0.00,BKN,,0.00,WeatherDisplay:10.37,2013-08-27 18:39:00,
2013-08-27 14:40:00,84.1,73.3,30.10,ENE,69,0.1,2.3,70,0.00,BKN,,0.00,WeatherDisplay:10.37,2013-08-27 18:40:00,
2013-08-27 14:43:00,84.1,73.7,30.10,ENE,69,0.0,1.1,71,0.00,BKN,,0.00,WeatherDisplay:10.37,2013-08-27 18:43:00,
2013-08-27 14:44:00,84.0,73.6,30.10,ENE,69,0.1,1.1,71,0.00,BKN,,0.00,WeatherDisplay:10.37,2013-08-27 18:44:00,
2013-08-27 14:45:00,84.0,74.0,30.09,ENE,69,0.0,1.1,72,0.00,BKN,,0.00,WeatherDisplay:10.37,2013-08-27 18:45:00,
2013-08-27 14:48:00,84.0,74.0,30.09,East,97,0.5,3.5,72,0.00,BKN,,0.00,WeatherDisplay:10.37,2013-08-27 18:48:00,
2013-08-27 14:49:00,84.1,74.1,30.09,East,101,1.3,3.5,72,0.00,BKN,,0.00,WeatherDisplay:10.37,2013-08-27 18:49:00,
2013-08-27 14:50:00,84.1,74.1,30.09,East,101,0.0,1.1,72,0.00,BKN,,0.00,WeatherDisplay:10.37,2013-08-27 18:50:00,
2013-08-27 14:51:00,84.2,74.2,30.09,East,101,0.0,1.1,72,0.00,BKN,,0.00,WeatherDisplay:10.37,2013-08-27 18:51:00,
2013-08-27 14:53:00,84.3,74.3,30.09,East,101,0.0,0.0,72,0.00,BKN,,0.00,WeatherDisplay:10.37,2013-08-27 18:53:00,
2013-08-27 14:54:00,84.4,74.4,30.09,East,101,0.0,1.0,72,0.00,BKN,,0.00,WeatherDisplay:10.37,2013-08-27 18:54:00,
2013-08-27 14:55:00,84.5,74.5,30.09,East,101,0.1,1.1,72,0.00,BKN,,0.00,WeatherDisplay:10.37,2013-08-27 18:55:00,
2013-08-27 14:56:00,84.6,74.6,30.09,East,101,0.0,1.1,72,0.00,BKN,,0.00,WeatherDisplay:10.37,2013-08-27 18:56:00,
2013-08-27 14:58:00,85.0,74.5,30.09,East,101,0.0,0.0,71,0.00,BKN,,0.00,WeatherDisplay:10.37,2013-08-27 18:58:00,
2013-08-27 14:59:00,85.1,73.8,30.09,East,101,0.0,0.0,69,0.00,BKN,,0.00,WeatherDisplay:10.37,2013-08-27 18:59:00,
2013-08-27 15:00:00,85.1,72.9,30.09,East,101,0.0,0.0,67,0.00,BKN,,0.00,WeatherDisplay:10.37,2013-08-27 19:00:00,
2013-08-27 15:01:00,85.1,73.3,30.09,East,101,0.0,0.0,68,0.00,OVC,,0.00,WeatherDisplay:10.37,2013-08-27 19:01:00,
2013-08-27 15:03:00,85.1,72.5,30.09,East,101,0.0,1.1,66,0.00,OVC,,0.00,WeatherDisplay:10.37,2013-08-27 19:03:00,
2013-08-27 15:04:00,85.1,72.5,30.09,East,101,0.0,0.0,66,0.00,OVC,,0.00,WeatherDisplay:10.37,2013-08-27 19:04:00,
2013-08-27 15:05:00,85.1,72.5,30.08,East,101,0.0,0.0,66,0.00,OVC,,0.00,WeatherDisplay:10.37,2013-08-27 19:05:00,
2013-08-27 15:06:00,85.0,72.4,30.09,East,101,0.0,0.0,66,0.00,OVC,,0.00,WeatherDisplay:10.37,2013-08-27 19:06:00,
2013-08-27 15:08:00,85.0,73.7,30.08,East,101,0.0,0.0,69,0.00,OVC,,0.00,WeatherDisplay:10.37,2013-08-27 19:08:00,
2013-08-27 15:10:00,84.9,74.0,30.08,East,101,0.0,0.0,70,0.00,OVC,,0.00,WeatherDisplay:10.37,2013-08-27 19:10:00,
2013-08-27 15:11:00,84.9,74.0,30.08,East,101,0.0,0.0,70,0.00,OVC,,0.00,WeatherDisplay:10.37,2013-08-27 19:11:00,
2013-08-27 15:13:00,84.9,73.6,30.08,East,101,0.0,0.0,69,0.00,OVC,,0.00,WeatherDisplay:10.37,2013-08-27 19:13:00,
2013-08-27 15:15:00,84.8,73.1,30.08,ESE,102,0.0,0.0,68,0.00,OVC,,0.00,WeatherDisplay:10.37,2013-08-27 19:15:00,
2013-08-27 15:16:00,84.8,73.5,30.08,ESE,102,0.0,1.1,69,0.00,OVC,,0.00,WeatherDisplay:10.37,2013-08-27 19:16:00,
2013-08-27 15:17:00,84.7,73.4,30.08,ESE,104,0.8,3.5,69,0.00,OVC,,0.00,WeatherDisplay:10.37,2013-08-27 19:17:00,
2013-08-27 15:18:00,84.7,72.5,30.08,ESE,104,0.0,0.0,67,0.00,OVC,,0.00,WeatherDisplay:10.37,2013-08-27 19:18:00,
2013-08-27 15:20:00,84.6,73.3,30.08,ESE,104,0.0,0.0,69,0.00,OVC,,0.00,WeatherDisplay:10.37,2013-08-27 19:20:00,
2013-08-27 15:21:00,84.5,73.2,30.08,ESE,104,0.0,0.0,69,0.00,OVC,,0.00,WeatherDisplay:10.37,2013-08-27 19:21:00,
2013-08-27 15:23:00,84.3,72.1,30.08,ESE,104,0.0,0.0,67,0.00,OVC,,0.00,WeatherDisplay:10.37,2013-08-27 19:23:00,
2013-08-27 15:25:00,84.2,72.5,30.08,ESE,106,0.0,0.0,68,0.00,OVC,,0.00,WeatherDisplay:10.37,2013-08-27 19:25:00,
2013-08-27 15:27:00,84.2,72.9,30.08,ESE,114,0.5,1.1,69,0.00,OVC,,0.00,WeatherDisplay:10.37,2013-08-27 19:27:00,
2013-08-27 15:28:00,84.3,73.4,30.08,SW,234,0.9,3.5,70,0.00,OVC,,0.00,WeatherDisplay:10.37,2013-08-27 19:28:00,
2013-08-27 15:30:00,84.4,73.1,30.08,WSW,249,3.7,4.6,69,0.00,OVC,,0.00,WeatherDisplay:10.37,2013-08-27 19:30:00,
2013-08-27 15:31:00,84.4,73.1,30.08,WSW,257,2.8,5.8,69,0.00,OVC,,0.00,WeatherDisplay:10.37,2013-08-27 19:31:00,
2013-08-27 15:32:00,84.4,73.1,30.08,West,269,0.2,4.6,69,0.00,OVC,,0.00,WeatherDisplay:10.37,2013-08-27 19:32:00,
2013-08-27 15:33:00,84.4,73.1,30.08,West,269,0.0,1.1,69,0.00,OVC,,0.00,WeatherDisplay:10.37,2013-08-27 19:33:00,
2013-08-27 15:34:00,84.3,73.0,30.08,West,269,0.2,2.3,69,0.00,OVC,,0.00,WeatherDisplay:10.37,2013-08-27 19:34:00,
2013-08-27 15:35:00,84.2,72.9,30.08,West,271,0.5,2.3,69,0.00,OVC,,0.00,WeatherDisplay:10.37,2013-08-27 19:35:00,
2013-08-27 15:36:00,84.2,72.9,30.08,West,275,0.0,2.3,69,0.00,OVC,,0.00,WeatherDisplay:10.37,2013-08-27 19:36:00,
2013-08-27 15:37:00,84.1,72.8,30.08,North,352,1.9,3.5,69,0.00,OVC,,0.00,WeatherDisplay:10.37,2013-08-27 19:37:00,
2013-08-27 15:38:00,84.1,73.7,30.08,NNW,343,1.4,3.5,71,0.00,OVC,,0.00,WeatherDisplay:10.37,2013-08-27 19:38:00,
2013-08-27 15:39:00,84.0,73.2,30.08,NNW,329,0.0,2.3,70,0.00,OVC,,0.00,WeatherDisplay:10.37,2013-08-27 19:39:00,
2013-08-27 15:40:00,84.0,73.6,30.08,NNW,339,1.1,4.0,71,0.00,OVC,,0.00,WeatherDisplay:10.37,2013-08-27 19:40:00,
2013-08-27 15:41:00,83.9,73.1,30.08,NNW,342,2.3,3.5,70,0.00,OVC,,0.00,WeatherDisplay:10.37,2013-08-27 19:41:00,
2013-08-27 15:42:00,83.7,72.9,30.08,NNW,343,0.0,1.1,70,0.00,OVC,,0.00,WeatherDisplay:10.37,2013-08-27 19:42:00,
2013-08-27 15:43:00,83.7,72.9,30.08,NNW,343,0.0,1.1,70,0.00,OVC,,0.00,WeatherDisplay:10.37,2013-08-27 19:43:00,
2013-08-27 15:44:00,83.8,73.4,30.08,WSW,255,0.5,1.1,71,0.00,OVC,,0.00,WeatherDisplay:10.37,2013-08-27 19:44:00,
2013-08-27 15:46:00,83.8,73.4,30.08,WSW,255,0.0,1.1,71,0.00,OVC,,0.00,WeatherDisplay:10.37,2013-08-27 19:46:00,
2013-08-27 15:48:00,83.7,72.9,30.08,WNW,293,0.2,2.3,70,0.00,OVC,,0.00,WeatherDisplay:10.37,2013-08-27 19:48:00,
2013-08-27 15:49:00,83.7,72.9,30.08,WNW,293,0.1,1.1,70,0.00,OVC,,0.00,WeatherDisplay:10.37,2013-08-27 19:49:00,
2013-08-27 15:51:00,83.7,72.9,30.07,WNW,293,0.0,0.0,70,0.00,OVC,,0.00,WeatherDisplay:10.37,2013-08-27 19:51:00,
2013-08-27 15:52:00,83.8,73.0,30.08,WNW,286,0.1,1.1,70,0.00,OVC,,0.00,WeatherDisplay:10.37,2013-08-27 19:52:00,
2013-08-27 15:53:00,83.9,73.5,30.08,West,261,1.1,3.5,71,0.00,OVC,,0.00,WeatherDisplay:10.37,2013-08-27 19:53:00,
2013-08-27 15:55:00,84.1,73.3,30.08,West,263,0.0,0.0,70,0.00,OVC,,0.00,WeatherDisplay:10.37,2013-08-27 19:55:00,
2013-08-27 15:56:00,84.2,73.3,30.08,West,263,0.0,0.0,70,0.00,OVC,,0.00,WeatherDisplay:10.37,2013-08-27 19:56:00,
2013-08-27 15:57:00,84.4,73.5,30.07,West,264,0.0,0.0,70,0.00,OVC,,0.00,WeatherDisplay:10.37,2013-08-27 19:57:00,
2013-08-27 15:59:00,84.6,74.2,30.07,West,263,0.0,1.1,71,0.00,OVC,,0.00,WeatherDisplay:10.37,2013-08-27 19:59:00,
2013-08-27 16:00:00,84.7,73.4,30.08,West,263,0.4,2.3,69,0.00,OVC,,0.00,WeatherDisplay:10.37,2013-08-27 20:00:00,
2013-08-27 16:01:00,84.8,73.9,30.07,WSW,244,0.6,2.3,70,0.00,OVC,,0.00,WeatherDisplay:10.37,2013-08-27 20:01:00,
2013-08-27 16:02:00,84.8,73.5,30.07,WSW,244,0.0,2.3,69,0.00,OVC,,0.00,WeatherDisplay:10.37,2013-08-27 20:02:00,
2013-08-27 16:04:00,85.0,73.7,30.07,WSW,244,0.1,1.1,69,0.00,OVC,,0.00,WeatherDisplay:10.37,2013-08-27 20:04:00,
2013-08-27 16:05:00,85.2,73.9,30.07,WSW,244,0.0,0.0,69,0.00,OVC,,0.00,WeatherDisplay:10.37,2013-08-27 20:05:00,
2013-08-27 16:07:00,85.4,73.6,30.07,WSW,244,0.0,0.0,68,0.00,OVC,,0.00,WeatherDisplay:10.37,2013-08-27 20:07:00,
2013-08-27 16:09:00,85.5,74.2,30.07,SE,129,0.0,1.1,69,0.00,OVC,,0.00,WeatherDisplay:10.37,2013-08-27 20:09:00,
2013-08-27 16:10:00,85.6,73.4,30.07,SE,142,0.0,1.1,67,0.00,OVC,,0.00,WeatherDisplay:10.37,2013-08-27 20:10:00,
2013-08-27 16:11:00,85.6,72.9,30.07,SE,141,0.0,0.0,66,0.00,OVC,,0.00,WeatherDisplay:10.37,2013-08-27 20:11:00,
2013-08-27 16:12:00,85.7,73.5,30.07,ESE,102,0.0,0.0,67,0.00,OVC,,0.00,WeatherDisplay:10.37,2013-08-27 20:12:00,
2013-08-27 16:14:00,86.0,75.1,30.07,ESE,102,0.1,1.1,70,0.00,OVC,,0.00,WeatherDisplay:10.37,2013-08-27 20:14:00,
2013-08-27 16:15:00,86.1,86.1,30.07,ESE,102,0.0,1.1,100,0.00,OVC,,0.00,WeatherDisplay:10.37,2013-08-27 20:15:00,
2013-08-27 16:16:00,86.3,86.3,30.07,SE,131,2.0,5.8,100,0.00,OVC,,0.00,WeatherDisplay:10.37,2013-08-27 20:16:00,
2013-08-27 16:17:00,86.4,86.4,30.07,SE,140,0.9,6.9,100,0.00,OVC,,0.00,WeatherDisplay:10.37,2013-08-27 20:17:00,
2013-08-27 16:19:00,86.9,86.9,30.07,SE,134,0.9,3.5,100,0.00,OVC,,0.00,WeatherDisplay:10.37,2013-08-27 20:19:00,
2013-08-27 16:20:00,87.2,87.2,30.07,SE,129,1.6,3.5,100,0.00,OVC,,0.00,WeatherDisplay:10.37,2013-08-27 20:20:00,
2013-08-27 16:21:00,87.5,87.5,30.07,SE,127,1.0,3.5,100,0.00,OVC,,0.00,WeatherDisplay:10.37,2013-08-27 20:21:00,
2013-08-27 16:22:00,87.7,87.7,30.07,ESE,122,0.1,3.5,100,0.00,OVC,,0.00,WeatherDisplay:10.37,2013-08-27 20:22:00,
2013-08-27 16:24:00,88.1,88.1,30.07,ESE,103,0.2,3.5,100,0.00,OVC,,0.00,WeatherDisplay:10.37,2013-08-27 20:24:00,
2013-08-27 16:25:00,88.3,88.3,30.07,ESE,122,1.3,3.5,100,0.00,OVC,,0.00,WeatherDisplay:10.37,2013-08-27 20:25:00,
2013-08-27 16:26:00,88.3,88.3,30.06,ESE,122,0.9,3.5,100,0.00,OVC,,0.00,WeatherDisplay:10.37,2013-08-27 20:26:00,
2013-08-27 16:27:00,88.3,88.3,30.07,ESE,111,1.7,3.5,100,0.00,OVC,,0.00,WeatherDisplay:10.37,2013-08-27 20:27:00,
2013-08-27 16:29:00,88.2,88.2,30.07,ESE,111,5.3,5.3,100,0.00,OVC,,0.00,WeatherDisplay:10.37,2013-08-27 20:29:00,
2013-08-27 16:30:00,88.1,88.1,30.07,SE,130,1.1,8.1,100,0.00,OVC,,0.00,WeatherDisplay:10.37,2013-08-27 20:30:00,
2013-08-27 16:31:00,88.1,88.1,30.07,East,93,3.4,4.0,100,0.00,OVC,,0.00,WeatherDisplay:10.37,2013-08-27 20:31:00,
2013-08-27 16:32:00,88.0,88.0,30.07,East,87,4.8,5.8,100,0.00,OVC,,0.00,WeatherDisplay:10.37,2013-08-27 20:32:00,
2013-08-27 16:33:00,87.9,87.9,30.07,East,81,5.0,5.8,100,0.00,OVC,,0.00,WeatherDisplay:10.37,2013-08-27 20:33:00,
2013-08-27 16:35:00,87.7,87.7,30.07,East,81,1.6,5.8,100,0.00,OVC,,0.00,WeatherDisplay:10.37,2013-08-27 20:35:00,
2013-08-27 16:37:00,87.6,87.6,30.07,East,95,2.4,4.6,100,0.00,OVC,,0.00,WeatherDisplay:10.37,2013-08-27 20:37:00,
2013-08-27 16:38:00,87.5,87.5,30.07,ESE,104,3.2,5.0,100,0.00,OVC,,0.00,WeatherDisplay:10.37,2013-08-27 20:38:00,
2013-08-27 16:40:00,87.2,87.2,30.07,East,88,2.6,5.8,100,0.00,OVC,,0.00,WeatherDisplay:10.37,2013-08-27 20:40:00,
2013-08-27 16:41:00,87.2,87.2,30.07,East,87,2.7,5.8,100,0.00,OVC,,0.00,WeatherDisplay:10.37,2013-08-27 20:41:00,
2013-08-27 16:42:00,87.0,87.0,30.07,SE,133,1.6,5.8,100,0.00,OVC,,0.00,WeatherDisplay:10.37,2013-08-27 20:42:00,
2013-08-27 16:43:00,86.9,86.9,30.07,ESE,110,1.3,3.5,100,0.00,OVC,,0.00,WeatherDisplay:10.37,2013-08-27 20:43:00,
2013-08-27 16:45:00,86.5,86.5,30.06,ESE,106,0.7,3.5,100,0.00,OVC,,0.00,WeatherDisplay:10.37,2013-08-27 20:45:00,
2013-08-27 16:46:00,86.5,86.5,30.07,ESE,107,0.1,3.5,100,0.00,OVC,,0.00,WeatherDisplay:10.37,2013-08-27 20:46:00,
2013-08-27 16:47:00,86.3,86.3,30.07,ESE,107,0.2,1.1,100,0.00,OVC,,0.00,WeatherDisplay:10.37,2013-08-27 20:47:00,
2013-08-27 16:48:00,86.2,86.2,30.07,East,100,2.1,5.0,100,0.00,OVC,,0.00,WeatherDisplay:10.37,2013-08-27 20:48:00,
2013-08-27 16:49:00,86.2,86.2,30.07,East,86,3.3,4.6,100,0.00,OVC,,0.00,WeatherDisplay:10.37,2013-08-27 20:49:00,
2013-08-27 16:51:00,86.0,86.0,30.07,East,98,3.7,5.8,100,0.00,OVC,,0.00,WeatherDisplay:10.37,2013-08-27 20:51:00,
2013-08-27 16:52:00,85.9,85.9,30.07,ESE,109,0.6,5.0,100,0.00,OVC,,0.00,WeatherDisplay:10.37,2013-08-27 20:52:00,
2013-08-27 16:53:00,85.9,85.9,30.07,SE,130,3.5,4.6,100,0.00,OVC,,0.00,WeatherDisplay:10.37,2013-08-27 20:53:00,
2013-08-27 16:54:00,85.9,85.9,30.07,ESE,108,2.6,4.6,100,0.00,OVC,,0.00,WeatherDisplay:10.37,2013-08-27 20:54:00,
2013-08-27 16:56:00,86.1,86.1,30.07,ENE,78,2.7,4.6,100,0.00,OVC,,0.00,WeatherDisplay:10.37,2013-08-27 20:56:00,
2013-08-27 16:57:00,86.2,86.2,30.07,ESE,109,2.0,3.5,100,0.00,OVC,,0.00,WeatherDisplay:10.37,2013-08-27 20:57:00,
2013-08-27 16:58:00,86.2,86.2,30.07,ENE,72,1.4,4.6,100,0.00,OVC,,0.00,WeatherDisplay:10.37,2013-08-27 20:58:00,
2013-08-27 16:59:00,86.2,86.2,30.07,East,83,3.0,4.6,100,0.00,OVC,,0.00,WeatherDisplay:10.37,2013-08-27 20:59:00,
2013-08-27 17:01:00,86.1,86.1,30.07,East,99,3.0,3.5,100,0.00,OVC,,0.00,WeatherDisplay:10.37,2013-08-27 21:01:00,
2013-08-27 17:02:00,86.1,86.1,30.07,East,99,1.7,4.6,100,0.00,OVC,,0.00,WeatherDisplay:10.37,2013-08-27 21:02:00,
2013-08-27 17:03:00,86.0,86.0,30.07,East,99,0.5,4.0,100,0.00,OVC,,0.00,WeatherDisplay:10.37,2013-08-27 21:03:00,
2013-08-27 17:04:00,85.9,85.9,30.07,East,99,0.6,3.5,100,0.00,OVC,,0.00,WeatherDisplay:10.37,2013-08-27 21:04:00,
2013-08-27 17:07:00,85.6,85.6,30.07,East,86,0.0,0.0,100,0.00,OVC,,0.00,WeatherDisplay:10.37,2013-08-27 21:07:00,
2013-08-27 17:08:00,85.5,85.5,30.07,East,86,0.0,0.0,100,0.00,OVC,,0.00,WeatherDisplay:10.37,2013-08-27 21:08:00,
2013-08-27 17:09:00,85.3,85.3,30.07,ENE,72,2.3,4.6,100,0.00,OVC,,0.00,WeatherDisplay:10.37,2013-08-27 21:09:00,
2013-08-27 17:15:00,84.9,84.9,30.07,ENE,75,0.0,0.0,100,0.00,OVC,,0.00,WeatherDisplay:10.37,2013-08-27 21:15:00,
2013-08-27 17:17:00,84.7,84.7,30.07,ENE,75,0.0,1.1,100,0.00,OVC,,0.00,WeatherDisplay:10.37,2013-08-27 21:17:00,
2013-08-27 17:19:00,84.7,84.7,30.07,ENE,75,0.0,1.0,100,0.00,OVC,,0.00,WeatherDisplay:10.37,2013-08-27 21:19:00,
2013-08-27 17:20:00,84.6,84.6,30.06,ENE,75,0.0,0.0,100,0.00,OVC,,0.00,WeatherDisplay:10.37,2013-08-27 21:20:00,
2013-08-27 17:22:00,84.5,84.5,30.06,ENE,75,0.0,0.0,100,0.00,OVC,,0.00,WeatherDisplay:10.37,2013-08-27 21:22:00,
2013-08-27 17:28:00,84.4,84.4,30.06,ENE,75,0.0,0.0,100,0.00,OVC,,0.00,WeatherDisplay:10.37,2013-08-27 21:28:00,
2013-08-27 17:30:00,84.4,84.4,30.06,ENE,75,0.0,0.0,100,0.00,OVC,,0.00,WeatherDisplay:10.37,2013-08-27 21:30:00,
2013-08-27 17:32:00,84.3,84.3,30.06,ENE,75,0.0,0.0,100,0.00,OVC,,0.00,WeatherDisplay:10.37,2013-08-27 21:32:00,
2013-08-27 17:37:00,84.0,84.0,30.06,ENE,75,0.0,0.0,100,0.00,OVC,,0.00,WeatherDisplay:10.37,2013-08-27 21:37:00,
2013-08-27 17:45:00,78.4,78.4,30.06,ENE,75,0.0,0.0,100,0.00,OVC,,0.00,WeatherDisplay:10.37,2013-08-27 21:45:00,
2013-08-27 17:47:00,78.4,78.4,30.06,ENE,75,0.0,0.0,100,0.00,OVC,,0.00,WeatherDisplay:10.37,2013-08-27 21:47:00,
2013-08-27 17:50:00,78.7,78.7,30.06,ENE,75,0.0,0.0,100,0.00,OVC,,0.00,WeatherDisplay:10.37,2013-08-27 21:50:00,
2013-08-27 17:52:00,78.9,78.9,30.06,ENE,75,0.0,0.0,100,0.00,OVC,,0.00,WeatherDisplay:10.37,2013-08-27 21:52:00,
2013-08-27 17:53:00,79.6,79.6,30.06,ENE,75,0.1,1.1,100,0.00,OVC,,0.00,WeatherDisplay:10.37,2013-08-27 21:53:00,
2013-08-27 17:55:00,80.3,80.3,30.05,ENE,75,0.0,0.0,100,0.00,OVC,,0.00,WeatherDisplay:10.37,2013-08-27 21:55:00,
2013-08-27 17:57:00,80.3,80.3,30.05,ENE,75,0.1,0.0,100,0.00,OVC,,0.00,WeatherDisplay:10.37,2013-08-27 21:57:00,
2013-08-27 17:58:00,80.6,80.6,30.05,ENE,75,0.1,1.1,100,0.00,OVC,,0.00,WeatherDisplay:10.37,2013-08-27 21:58:00,
2013-08-27 18:00:00,81.1,81.1,30.05,SSE,168,0.0,3.5,100,0.00,OVC,,0.00,WeatherDisplay:10.37,2013-08-27 22:00:00,
2013-08-27 18:02:00,82.3,82.3,30.05,South,191,1.8,0.0,100,0.00,BKN,,0.00,WeatherDisplay:10.37,2013-08-27 22:02:00,
2013-08-27 18:03:00,82.6,82.6,30.05,South,191,0.0,4.6,100,0.00,BKN,,0.00,WeatherDisplay:10.37,2013-08-27 22:03:00,
2013-08-27 18:06:00,83.8,83.8,30.05,SE,144,2.1,3.5,100,0.00,BKN,,0.00,WeatherDisplay:10.37,2013-08-27 22:06:00,
2013-08-27 18:07:00,84.0,84.0,30.05,SE,145,0.0,2.3,100,0.00,BKN,,0.00,WeatherDisplay:10.37,2013-08-27 22:07:00,
2013-08-27 18:09:00,83.9,83.9,30.05,SE,145,0.0,0.0,100,0.00,BKN,,0.00,WeatherDisplay:10.37,2013-08-27 22:09:00,
2013-08-27 18:11:00,83.7,83.7,30.05,SE,145,0.0,0.0,100,0.00,BKN,,0.00,WeatherDisplay:10.37,2013-08-27 22:11:00,
2013-08-27 18:12:00,82.7,82.7,30.05,SE,145,0.0,0.0,100,0.00,BKN,,0.00,WeatherDisplay:10.37,2013-08-27 22:12:00,
2013-08-27 18:13:00,80.7,80.7,30.05,SE,143,0.4,2.0,100,0.00,BKN,,0.00,WeatherDisplay:10.37,2013-08-27 22:13:00,
2013-08-27 18:14:00,85.8,85.8,30.05,SE,142,0.5,3.5,100,0.00,BKN,,0.00,WeatherDisplay:10.37,2013-08-27 22:14:00,
2013-08-27 18:16:00,85.7,85.7,30.05,ESE,123,0.0,0.0,100,0.00,BKN,,0.00,WeatherDisplay:10.37,2013-08-27 22:16:00,
2013-08-27 18:17:00,85.3,85.3,30.05,SSW,197,2.1,4.0,100,0.00,BKN,,0.00,WeatherDisplay:10.37,2013-08-27 22:17:00,
2013-08-27 18:18:00,85.2,85.2,30.05,South,188,3.1,4.6,100,0.00,BKN,,0.00,WeatherDisplay:10.37,2013-08-27 22:18:00,
2013-08-27 18:19:00,85.1,85.1,30.05,SSW,203,1.5,5.0,100,0.00,BKN,,0.00,WeatherDisplay:10.37,2013-08-27 22:19:00,
2013-08-27 18:20:00,85.0,85.0,30.05,SSW,207,2.4,5.8,100,0.00,BKN,,0.00,WeatherDisplay:10.37,2013-08-27 22:20:00,
2013-08-27 18:21:00,84.8,84.8,30.05,SSW,196,3.0,5.0,100,0.00,BKN,,0.00,WeatherDisplay:10.37,2013-08-27 22:21:00,
2013-08-27 18:23:00,84.7,84.7,30.05,South,191,0.0,3.5,100,0.00,BKN,,0.00,WeatherDisplay:10.37,2013-08-27 22:23:00,
2013-08-27 18:25:00,84.6,84.6,30.05,South,191,0.0,0.0,100,0.00,BKN,,0.00,WeatherDisplay:10.37,2013-08-27 22:25:00,
2013-08-27 18:27:00,84.6,84.6,30.05,SSE,164,0.9,3.5,100,0.00,BKN,,0.00,WeatherDisplay:10.37,2013-08-27 22:27:00,
2013-08-27 18:28:00,85.9,85.9,30.05,SSE,150,0.1,3.5,100,0.00,BKN,,0.00,WeatherDisplay:10.37,2013-08-27 22:28:00,
2013-08-27 18:30:00,85.9,85.9,30.05,SSE,150,0.0,0.0,100,0.00,BKN,,0.00,WeatherDisplay:10.37,2013-08-27 22:30:00,
2013-08-27 18:32:00,85.9,85.9,30.05,SSE,150,0.0,0.0,100,0.00,BKN,,0.00,WeatherDisplay:10.37,2013-08-27 22:32:00,
2013-08-27 18:33:00,86.1,86.1,30.05,SSE,150,0.0,0.0,100,0.00,BKN,,0.00,WeatherDisplay:10.37,2013-08-27 22:33:00,
2013-08-27 18:34:00,86.1,86.1,30.05,SSE,151,0.0,0.0,100,0.00,BKN,,0.00,WeatherDisplay:10.37,2013-08-27 22:34:00,
2013-08-27 18:35:00,86.1,86.1,30.05,SSE,151,0.0,0.0,100,0.00,BKN,,0.00,WeatherDisplay:10.37,2013-08-27 22:35:00,
2013-08-27 18:37:00,85.9,85.9,30.05,SSE,150,0.0,0.0,100,0.00,BKN,,0.00,WeatherDisplay:10.37,2013-08-27 22:37:00,
2013-08-27 18:38:00,86.0,86.0,30.05,SSE,151,0.0,0.0,100,0.00,BKN,,0.00,WeatherDisplay:10.37,2013-08-27 22:38:00,
2013-08-27 18:39:00,85.9,85.9,30.05,SSE,150,0.0,0.0,100,0.00,BKN,,0.00,WeatherDisplay:10.37,2013-08-27 22:39:00,
2013-08-27 18:40:00,85.8,85.8,30.05,SSE,150,0.0,0.0,100,0.00,BKN,,0.00,WeatherDisplay:10.37,2013-08-27 22:40:00,
2013-08-27 18:41:00,85.9,85.9,30.05,SSE,150,0.0,0.0,100,0.00,BKN,,0.00,WeatherDisplay:10.37,2013-08-27 22:41:00,
2013-08-27 18:42:00,85.8,85.8,30.05,SSE,150,0.0,0.0,100,0.00,BKN,,0.00,WeatherDisplay:10.37,2013-08-27 22:42:00,
2013-08-27 18:44:00,85.7,85.7,30.05,SSE,151,0.0,0.0,100,0.00,BKN,,0.00,WeatherDisplay:10.37,2013-08-27 22:44:00,
2013-08-27 18:45:00,86.2,86.2,30.05,SSE,151,0.0,0.0,100,0.00,BKN,,0.00,WeatherDisplay:10.37,2013-08-27 22:45:00,
2013-08-27 18:46:00,86.1,86.1,30.05,SSE,150,0.0,0.0,100,0.00,BKN,,0.00,WeatherDisplay:10.37,2013-08-27 22:46:00,
2013-08-27 18:47:00,86.0,86.0,30.05,SSE,150,0.0,0.0,100,0.00,BKN,,0.00,WeatherDisplay:10.37,2013-08-27 22:47:00,
2013-08-27 18:49:00,85.9,85.9,30.05,SSE,150,0.0,0.0,100,0.00,BKN,,0.00,WeatherDisplay:10.37,2013-08-27 22:49:00,
2013-08-27 18:50:00,85.8,85.8,30.05,SSE,151,0.0,0.0,100,0.00,BKN,,0.00,WeatherDisplay:10.37,2013-08-27 22:50:00,
2013-08-27 18:51:00,85.8,85.8,30.05,SSE,150,0.0,0.0,100,0.00,BKN,,0.00,WeatherDisplay:10.37,2013-08-27 22:51:00,
2013-08-27 18:52:00,85.7,85.7,30.05,SSE,151,0.0,0.0,100,0.00,BKN,,0.00,WeatherDisplay:10.37,2013-08-27 22:52:00,
2013-08-27 18:54:00,85.7,85.7,30.05,SSE,150,0.0,0.0,100,0.00,BKN,,0.00,WeatherDisplay:10.37,2013-08-27 22:54:00,
2013-08-27 18:55:00,85.7,85.7,30.05,SSE,151,0.0,0.0,100,0.00,BKN,,0.00,WeatherDisplay:10.37,2013-08-27 22:55:00,
2013-08-27 18:56:00,85.6,85.6,30.05,SSE,150,0.0,0.0,100,0.00,BKN,,0.00,WeatherDisplay:10.37,2013-08-27 22:56:00,
2013-08-27 18:58:00,85.5,85.5,30.05,SSE,151,0.0,0.0,100,0.00,BKN,,0.00,WeatherDisplay:10.37,2013-08-27 22:58:00,
2013-08-27 18:59:00,85.4,85.4,30.05,SSE,151,0.0,0.0,100,0.00,BKN,,0.00,WeatherDisplay:10.37,2013-08-27 22:59:00,
2013-08-27 19:00:00,85.4,85.4,30.05,SSE,150,0.0,0.0,100,0.00,BKN,,0.00,WeatherDisplay:10.37,2013-08-27 23:00:00,
2013-08-27 19:01:00,85.3,85.3,30.05,SSE,150,0.0,0.0,100,0.00,SCT,,0.00,WeatherDisplay:10.37,2013-08-27 23:01:00,
2013-08-27 19:03:00,85.2,85.2,30.05,SSE,150,0.0,0.0,100,0.00,SCT,,0.00,WeatherDisplay:10.37,2013-08-27 23:03:00,
2013-08-27 19:04:00,85.2,85.2,30.05,SSE,150,0.0,0.0,100,0.00,SCT,,0.00,WeatherDisplay:10.37,2013-08-27 23:04:00,
2013-08-27 19:05:00,85.2,85.2,30.05,SSE,151,0.0,0.0,100,0.00,SCT,,0.00,WeatherDisplay:10.37,2013-08-27 23:05:00,
2013-08-27 19:06:00,85.2,85.2,30.05,SSE,151,0.0,0.0,100,0.00,SCT,,0.00,WeatherDisplay:10.37,2013-08-27 23:06:00,
2013-08-27 19:08:00,85.1,85.1,30.05,SSE,151,0.0,1.1,100,0.00,SCT,,0.00,WeatherDisplay:10.37,2013-08-27 23:08:00,
2013-08-27 19:10:00,84.9,84.9,30.05,SSE,151,0.0,0.0,100,0.00,SCT,,0.00,WeatherDisplay:10.37,2013-08-27 23:10:00,
2013-08-27 19:11:00,84.9,84.9,30.05,SSE,151,0.0,0.0,100,0.00,SCT,,0.00,WeatherDisplay:10.37,2013-08-27 23:11:00,
2013-08-27 19:13:00,84.8,84.8,30.05,SSE,151,0.0,0.0,100,0.00,SCT,,0.00,WeatherDisplay:10.37,2013-08-27 23:13:00,
2013-08-27 19:15:00,84.7,84.7,30.05,SSE,151,0.0,0.0,100,0.00,SCT,,0.00,WeatherDisplay:10.37,2013-08-27 23:15:00,
2013-08-27 19:16:00,84.7,84.7,30.05,SSE,151,0.0,0.0,100,0.00,SCT,,0.00,WeatherDisplay:10.37,2013-08-27 23:16:00,
2013-08-27 19:17:00,84.7,84.7,30.05,SSE,150,0.0,0.0,100,0.00,SCT,,0.00,WeatherDisplay:10.37,2013-08-27 23:17:00,
2013-08-27 19:18:00,84.6,84.6,30.05,SSE,151,0.0,0.0,100,0.00,SCT,,0.00,WeatherDisplay:10.37,2013-08-27 23:18:00,
2013-08-27 19:20:00,84.5,84.5,30.05,SSE,150,0.0,0.0,100,0.00,SCT,,0.00,WeatherDisplay:10.37,2013-08-27 23:20:00,
2013-08-27 19:22:00,84.4,84.4,30.05,SSE,151,0.0,0.0,100,0.00,SCT,,0.00,WeatherDisplay:10.37,2013-08-27 23:22:00,
2013-08-27 19:23:00,84.4,84.4,30.05,SSE,151,0.0,0.0,100,0.00,SCT,,0.00,WeatherDisplay:10.37,2013-08-27 23:23:00,
2013-08-27 19:25:00,84.3,84.3,30.05,SSE,151,0.0,0.0,100,0.00,SCT,,0.00,WeatherDisplay:10.37,2013-08-27 23:25:00,
2013-08-27 19:27:00,84.3,84.3,30.05,SSE,151,0.0,0.0,100,0.00,SCT,,0.00,WeatherDisplay:10.37,2013-08-27 23:27:00,
2013-08-27 19:28:00,84.2,84.2,30.05,SSE,151,0.0,0.0,100,0.00,SCT,,0.00,WeatherDisplay:10.37,2013-08-27 23:28:00,
2013-08-27 19:30:00,84.1,84.1,30.05,SSE,151,0.0,1.1,100,0.00,SCT,,0.00,WeatherDisplay:10.37,2013-08-27 23:30:00,
2013-08-27 19:32:00,84.0,84.0,30.05,SSE,150,0.0,0.0,100,0.00,SCT,,0.00,WeatherDisplay:10.37,2013-08-27 23:32:00,
2013-08-27 19:33:00,83.9,83.9,30.05,SSE,151,0.0,0.0,100,0.00,SCT,,0.00,WeatherDisplay:10.37,2013-08-27 23:33:00,
2013-08-27 19:35:00,83.8,83.8,30.05,SSE,151,0.0,0.0,100,0.00,SCT,,0.00,WeatherDisplay:10.37,2013-08-27 23:35:00,
2013-08-27 19:37:00,83.6,83.6,30.05,SSE,151,0.0,0.0,100,0.00,SCT,,0.00,WeatherDisplay:10.37,2013-08-27 23:37:00,
2013-08-27 19:38:00,83.6,83.6,30.05,SSE,150,0.0,0.0,100,0.00,SCT,,0.00,WeatherDisplay:10.37,2013-08-27 23:38:00,
2013-08-27 19:40:00,83.5,83.5,30.05,SSE,151,0.0,0.0,100,0.00,SCT,,0.00,WeatherDisplay:10.37,2013-08-27 23:40:00,
2013-08-27 19:42:00,83.4,83.4,30.05,SSE,151,0.0,0.0,100,0.00,SCT,,0.00,WeatherDisplay:10.37,2013-08-27 23:42:00,
2013-08-27 19:43:00,83.3,83.3,30.05,SSE,151,0.0,0.0,100,0.00,SCT,,0.00,WeatherDisplay:10.37,2013-08-27 23:43:00,
2013-08-27 19:44:00,83.3,83.3,30.05,SSE,151,0.0,0.0,100,0.00,SCT,,0.00,WeatherDisplay:10.37,2013-08-27 23:44:00,
2013-08-27 19:46:00,83.1,83.1,30.05,SSE,151,0.0,0.0,100,0.00,SCT,,0.00,WeatherDisplay:10.37,2013-08-27 23:46:00,
2013-08-27 19:47:00,83.1,83.1,30.05,SSE,150,0.0,0.0,100,0.00,SCT,,0.00,WeatherDisplay:10.37,2013-08-27 23:47:00,
2013-08-27 19:48:00,83.0,83.0,30.05,SSE,151,0.0,0.0,100,0.00,SCT,,0.00,WeatherDisplay:10.37,2013-08-27 23:48:00,
2013-08-27 19:49:00,82.9,82.9,30.05,SSE,151,0.0,0.0,100,0.00,SCT,,0.00,WeatherDisplay:10.37,2013-08-27 23:49:00,
2013-08-27 19:51:00,82.8,82.8,30.05,SSE,151,0.0,0.0,100,0.00,SCT,,0.00,WeatherDisplay:10.37,2013-08-27 23:51:00,
2013-08-27 19:52:00,82.8,82.8,30.05,SSE,151,0.0,0.0,100,0.00,SCT,,0.00,WeatherDisplay:10.37,2013-08-27 23:52:00,
2013-08-27 19:53:00,82.7,82.7,30.05,SSE,151,0.0,0.0,100,0.00,SCT,,0.00,WeatherDisplay:10.37,2013-08-27 23:53:00,
2013-08-27 19:54:00,82.7,82.7,30.05,SSE,151,0.0,0.0,100,0.00,SCT,,0.00,WeatherDisplay:10.37,2013-08-27 23:54:00,
2013-08-27 19:56:00,82.5,82.5,30.05,SSE,151,0.0,0.0,100,0.00,SCT,,0.00,WeatherDisplay:10.37,2013-08-27 23:56:00,
2013-08-27 19:58:00,82.5,82.5,30.05,SSE,151,0.0,0.0,100,0.00,SCT,,0.00,WeatherDisplay:10.37,2013-08-27 23:58:00,
2013-08-27 19:59:00,82.5,82.5,30.05,SSE,150,0.0,0.0,100,0.00,SCT,,0.00,WeatherDisplay:10.37,2013-08-27 23:59:00,
2013-08-27 20:02:00,82.4,82.4,30.05,SSE,151,0.0,0.0,100,0.00,BKN,,0.00,WeatherDisplay:10.37,2013-08-28 00:02:00,
2013-08-27 20:03:00,82.3,82.3,30.05,SSE,151,0.0,0.0,100,0.00,BKN,,0.00,WeatherDisplay:10.37,2013-08-28 00:03:00,
2013-08-27 20:04:00,82.3,82.3,30.05,SSE,151,0.0,0.0,100,0.00,BKN,,0.00,WeatherDisplay:10.37,2013-08-28 00:04:00,
2013-08-27 20:05:00,82.1,82.1,30.05,SSE,150,0.0,0.0,100,0.00,BKN,,0.00,WeatherDisplay:10.37,2013-08-28 00:05:00,
2013-08-27 20:07:00,82.0,82.0,30.06,SSE,151,0.0,0.0,100,0.00,BKN,,0.00,WeatherDisplay:10.37,2013-08-28 00:07:00,
2013-08-27 20:08:00,81.9,81.9,30.05,SSE,151,0.0,0.0,100,0.00,BKN,,0.00,WeatherDisplay:10.37,2013-08-28 00:08:00,
2013-08-27 20:09:00,81.9,81.9,30.06,SSE,150,0.0,0.0,100,0.00,BKN,,0.00,WeatherDisplay:10.37,2013-08-28 00:09:00,
2013-08-27 20:10:00,81.8,81.8,30.06,SSE,151,0.0,0.0,100,0.00,BKN,,0.00,WeatherDisplay:10.37,2013-08-28 00:10:00,
2013-08-27 20:12:00,81.7,81.7,30.06,SSE,151,0.0,0.0,100,0.00,BKN,,0.00,WeatherDisplay:10.37,2013-08-28 00:12:00,
2013-08-27 20:13:00,81.6,81.6,30.06,SSE,150,0.0,0.0,100,0.00,BKN,,0.00,WeatherDisplay:10.37,2013-08-28 00:13:00,
2013-08-27 20:14:00,81.6,81.6,30.05,SSE,151,0.0,0.0,100,0.00,BKN,,0.00,WeatherDisplay:10.37,2013-08-28 00:14:00,
2013-08-27 20:15:00,81.5,81.5,30.05,SSE,151,0.0,0.0,100,0.00,BKN,,0.00,WeatherDisplay:10.37,2013-08-28 00:15:00,
2013-08-27 20:17:00,81.4,81.4,30.06,SSE,151,0.0,0.0,100,0.00,BKN,,0.00,WeatherDisplay:10.37,2013-08-28 00:17:00,
2013-08-27 20:18:00,81.4,81.4,30.06,SSE,150,0.0,0.0,100,0.00,BKN,,0.00,WeatherDisplay:10.37,2013-08-28 00:18:00,
2013-08-27 20:19:00,81.3,81.3,30.06,SSE,151,0.0,0.0,100,0.00,BKN,,0.00,WeatherDisplay:10.37,2013-08-28 00:19:00,
2013-08-27 20:20:00,81.3,81.3,30.05,SSE,151,0.0,0.0,100,0.00,BKN,,0.00,WeatherDisplay:10.37,2013-08-28 00:20:00,
2013-08-27 20:23:00,81.2,81.2,30.05,SSE,151,0.0,0.0,100,0.00,BKN,,0.00,WeatherDisplay:10.37,2013-08-28 00:23:00,
2013-08-27 20:24:00,81.2,81.2,30.06,SSE,151,0.0,0.0,100,0.00,BKN,,0.00,WeatherDisplay:10.37,2013-08-28 00:24:00,
2013-08-27 20:25:00,81.1,81.1,30.05,SSE,151,0.0,0.0,100,0.00,BKN,,0.00,WeatherDisplay:10.37,2013-08-28 00:25:00,
2013-08-27 20:26:00,81.1,81.1,30.05,SSE,151,0.0,0.0,100,0.00,BKN,,0.00,WeatherDisplay:10.37,2013-08-28 00:26:00,
2013-08-27 20:28:00,81.0,81.0,30.06,SSE,151,0.0,0.0,100,0.00,BKN,,0.00,WeatherDisplay:10.37,2013-08-28 00:28:00,
2013-08-27 20:29:00,81.0,81.0,30.06,SSE,151,0.0,0.0,100,0.00,BKN,,0.00,WeatherDisplay:10.37,2013-08-28 00:29:00,
2013-08-27 20:30:00,81.0,81.0,30.06,SSE,151,0.0,0.0,100,0.00,BKN,,0.00,WeatherDisplay:10.37,2013-08-28 00:30:00,
2013-08-27 20:31:00,80.9,80.9,30.06,SSE,151,0.0,0.0,100,0.00,BKN,,0.00,WeatherDisplay:10.37,2013-08-28 00:31:00,
2013-08-27 20:33:00,80.9,80.9,30.06,SSE,151,0.0,0.0,100,0.00,BKN,,0.00,WeatherDisplay:10.37,2013-08-28 00:33:00,
2013-08-27 20:34:00,80.8,80.8,30.06,SSE,151,0.0,0.0,100,0.00,BKN,,0.00,WeatherDisplay:10.37,2013-08-28 00:34:00,
2013-08-27 20:35:00,80.7,80.7,30.06,SSE,150,0.0,0.0,100,0.00,BKN,,0.00,WeatherDisplay:10.37,2013-08-28 00:35:00,
2013-08-27 20:37:00,80.5,80.5,30.06,SSE,151,0.0,0.0,100,0.00,BKN,,0.00,WeatherDisplay:10.37,2013-08-28 00:37:00,
2013-08-27 20:38:00,80.5,80.5,30.06,SSE,151,0.0,0.0,100,0.00,BKN,,0.00,WeatherDisplay:10.37,2013-08-28 00:38:00,
2013-08-27 20:39:00,80.4,80.4,30.06,SSE,151,0.0,0.0,100,0.00,BKN,,0.00,WeatherDisplay:10.37,2013-08-28 00:39:00,
2013-08-27 20:40:00,80.2,80.2,30.05,SSE,151,0.0,0.0,100,0.00,BKN,,0.00,WeatherDisplay:10.37,2013-08-28 00:40:00,
2013-08-27 20:43:00,79.1,79.1,30.06,SSE,150,0.0,0.0,100,0.00,BKN,,0.00,WeatherDisplay:10.37,2013-08-28 00:43:00,
2013-08-27 20:44:00,79.5,79.5,30.06,SSE,151,0.0,0.0,100,0.00,BKN,,0.00,WeatherDisplay:10.37,2013-08-28 00:44:00,
2013-08-27 20:45:00,79.4,79.4,30.06,SSE,150,0.0,0.0,100,0.00,BKN,,0.00,WeatherDisplay:10.37,2013-08-28 00:45:00,
2013-08-27 20:48:00,79.0,79.0,30.06,SSE,151,0.0,0.0,100,0.00,BKN,,0.00,WeatherDisplay:10.37,2013-08-28 00:48:00,
2013-08-27 20:49:00,79.0,79.0,30.06,SSE,151,0.0,0.0,100,0.00,BKN,,0.00,WeatherDisplay:10.37,2013-08-28 00:49:00,
2013-08-27 20:50:00,79.0,79.0,30.06,SSE,151,0.0,0.0,100,0.00,BKN,,0.00,WeatherDisplay:10.37,2013-08-28 00:50:00,
2013-08-27 20:53:00,79.0,79.0,30.06,SSE,151,0.0,0.0,100,0.00,BKN,,0.00,WeatherDisplay:10.37,2013-08-28 00:53:00,
2013-08-27 20:54:00,79.0,79.0,30.06,SSE,151,0.0,0.0,100,0.00,BKN,,0.00,WeatherDisplay:10.37,2013-08-28 00:54:00,
2013-08-27 20:55:00,79.1,79.1,30.06,SSE,150,0.0,0.0,100,0.00,BKN,,0.00,WeatherDisplay:10.37,2013-08-28 00:55:00,
2013-08-27 20:59:00,79.1,79.1,30.06,SSE,151,0.0,0.0,100,0.00,BKN,,0.00,WeatherDisplay:10.37,2013-08-28 00:59:00,
2013-08-27 21:00:00,79.1,79.1,30.06,SSE,150,0.0,0.0,100,0.00,BKN,,0.00,WeatherDisplay:10.37,2013-08-28 01:00:00,
2013-08-27 21:01:00,79.1,79.1,30.06,SSE,150,0.0,0.0,100,0.00,BKN,,0.00,WeatherDisplay:10.37,2013-08-28 01:01:00,
2013-08-27 21:04:00,78.9,78.9,30.06,SSE,151,0.0,0.0,100,0.00,BKN,,0.00,WeatherDisplay:10.37,2013-08-28 01:04:00,
2013-08-27 21:05:00,78.9,78.9,30.06,SSE,151,0.0,0.0,100,0.00,BKN,,0.00,WeatherDisplay:10.37,2013-08-28 01:05:00,
2013-08-27 21:06:00,79.0,79.0,30.06,SSE,151,0.0,0.0,100,0.00,BKN,,0.00,WeatherDisplay:10.37,2013-08-28 01:06:00,
2013-08-27 21:09:00,79.0,79.0,30.06,SSE,151,0.0,0.0,100,0.00,BKN,,0.00,WeatherDisplay:10.37,2013-08-28 01:09:00,
2013-08-27 21:10:00,79.0,79.0,30.06,SSE,151,0.0,0.0,100,0.00,BKN,,0.00,WeatherDisplay:10.37,2013-08-28 01:10:00,
2013-08-27 21:11:00,79.0,79.0,30.06,SSE,151,0.0,0.0,100,0.00,BKN,,0.00,WeatherDisplay:10.37,2013-08-28 01:11:00,
2013-08-27 21:13:00,78.9,78.9,30.06,SSE,151,0.0,0.0,100,0.00,BKN,,0.00,WeatherDisplay:10.37,2013-08-28 01:13:00,
2013-08-27 21:14:00,78.9,78.9,30.06,SSE,151,0.0,0.0,100,0.00,BKN,,0.00,WeatherDisplay:10.37,2013-08-28 01:14:00,
2013-08-27 21:15:00,78.8,78.8,30.06,SSE,151,0.0,0.0,100,0.00,BKN,,0.00,WeatherDisplay:10.37,2013-08-28 01:15:00,
2013-08-27 21:16:00,78.9,78.9,30.06,SSE,151,0.0,0.0,100,0.00,BKN,,0.00,WeatherDisplay:10.37,2013-08-28 01:16:00,
2013-08-27 21:18:00,78.9,78.9,30.06,SSE,151,0.0,0.0,100,0.00,BKN,,0.00,WeatherDisplay:10.37,2013-08-28 01:18:00,
2013-08-27 21:19:00,78.9,78.9,30.06,SSE,151,0.0,0.0,100,0.00,BKN,,0.00,WeatherDisplay:10.37,2013-08-28 01:19:00,
2013-08-27 21:20:00,78.8,78.8,30.06,SSE,151,0.0,0.0,100,0.00,BKN,,0.00,WeatherDisplay:10.37,2013-08-28 01:20:00,
2013-08-27 21:22:00,78.7,78.7,30.06,SSE,151,0.0,0.0,100,0.00,BKN,,0.00,WeatherDisplay:10.37,2013-08-28 01:22:00,
2013-08-27 21:23:00,78.7,78.7,30.06,SSE,151,0.0,0.0,100,0.00,BKN,,0.00,WeatherDisplay:10.37,2013-08-28 01:23:00,
2013-08-27 21:24:00,78.7,78.7,30.06,SSE,151,0.0,0.0,100,0.00,BKN,,0.00,WeatherDisplay:10.37,2013-08-28 01:24:00,
2013-08-27 21:26:00,78.6,78.6,30.06,SSE,151,0.0,0.0,100,0.00,BKN,,0.00,WeatherDisplay:10.37,2013-08-28 01:26:00,
2013-08-27 21:27:00,78.6,78.6,30.07,SSE,151,0.0,0.0,100,0.00,BKN,,0.00,WeatherDisplay:10.37,2013-08-28 01:27:00,
2013-08-27 21:28:00,78.6,78.6,30.07,SSE,151,0.0,0.0,100,0.00,BKN,,0.00,WeatherDisplay:10.37,2013-08-28 01:28:00,
2013-08-27 21:29:00,78.6,78.6,30.07,SSE,150,0.0,0.0,100,0.00,BKN,,0.00,WeatherDisplay:10.37,2013-08-28 01:29:00,
2013-08-27 21:31:00,78.6,78.6,30.06,SSE,150,0.0,0.0,100,0.00,BKN,,0.00,WeatherDisplay:10.37,2013-08-28 01:31:00,
2013-08-27 21:33:00,78.5,78.5,30.07,SSE,151,0.0,0.0,100,0.00,BKN,,0.00,WeatherDisplay:10.37,2013-08-28 01:33:00,
2013-08-27 21:34:00,78.5,78.5,30.07,SSE,150,0.0,0.0,100,0.00,BKN,,0.00,WeatherDisplay:10.37,2013-08-28 01:34:00,
2013-08-27 21:36:00,78.5,78.5,30.07,SSE,151,0.0,0.0,100,0.00,BKN,,0.00,WeatherDisplay:10.37,2013-08-28 01:36:00,
2013-08-27 21:38:00,78.5,78.5,30.07,SSE,151,0.0,0.0,100,0.00,BKN,,0.00,WeatherDisplay:10.37,2013-08-28 01:38:00,
2013-08-27 21:39:00,78.5,78.5,30.07,SSE,151,0.0,0.0,100,0.00,BKN,,0.00,WeatherDisplay:10.37,2013-08-28 01:39:00,
2013-08-27 21:41:00,78.5,78.5,30.07,SSE,151,0.0,0.0,100,0.00,BKN,,0.00,WeatherDisplay:10.37,2013-08-28 01:41:00,
2013-08-27 21:43:00,78.4,78.4,30.07,SSE,150,0.0,0.0,100,0.00,BKN,,0.00,WeatherDisplay:10.37,2013-08-28 01:43:00,
2013-08-27 21:44:00,78.4,78.4,30.07,SSE,151,0.0,0.0,100,0.00,BKN,,0.00,WeatherDisplay:10.37,2013-08-28 01:44:00,
2013-08-27 21:45:00,78.4,78.4,30.07,SSE,151,0.0,0.0,100,0.00,BKN,,0.00,WeatherDisplay:10.37,2013-08-28 01:45:00,
2013-08-27 21:46:00,78.3,78.3,30.07,SSE,151,0.0,0.0,100,0.00,BKN,,0.00,WeatherDisplay:10.37,2013-08-28 01:46:00,
2013-08-27 21:48:00,78.3,78.3,30.07,SSE,151,0.0,0.0,100,0.00,BKN,,0.00,WeatherDisplay:10.37,2013-08-28 01:48:00,
2013-08-27 21:49:00,78.3,78.3,30.07,SSE,151,0.0,0.0,100,0.00,BKN,,0.00,WeatherDisplay:10.37,2013-08-28 01:49:00,
2013-08-27 21:51:00,78.3,78.3,30.07,SSE,151,0.0,0.0,100,0.00,BKN,,0.00,WeatherDisplay:10.37,2013-08-28 01:51:00,
2013-08-27 21:54:00,78.2,78.2,30.07,SSE,151,0.0,0.0,100,0.00,BKN,,0.00,WeatherDisplay:10.37,2013-08-28 01:54:00,
2013-08-27 21:56:00,78.1,78.1,30.07,SSE,151,0.0,0.0,100,0.00,BKN,,0.00,WeatherDisplay:10.37,2013-08-28 01:56:00,
2013-08-27 21:57:00,78.1,78.1,30.07,SSE,151,0.0,0.0,100,0.00,BKN,,0.00,WeatherDisplay:10.37,2013-08-28 01:57:00,
2013-08-27 21:59:00,77.9,77.9,30.07,SSE,151,0.0,0.0,100,0.00,BKN,,0.00,WeatherDisplay:10.37,2013-08-28 01:59:00,
2013-08-27 22:00:00,77.9,77.9,30.07,SSE,151,0.0,0.0,100,0.00,BKN,,0.00,WeatherDisplay:10.37,2013-08-28 02:00:00,
2013-08-27 22:02:00,77.8,77.8,30.07,SSE,151,0.0,0.0,100,0.00,BKN,,0.00,WeatherDisplay:10.37,2013-08-28 02:02:00,
2013-08-27 22:04:00,77.7,77.7,30.07,SSE,151,0.0,0.0,100,0.00,BKN,,0.00,WeatherDisplay:10.37,2013-08-28 02:04:00,
2013-08-27 22:05:00,77.6,77.6,30.07,SSE,151,0.0,0.0,100,0.00,BKN,,0.00,WeatherDisplay:10.37,2013-08-28 02:05:00,
2013-08-27 22:07:00,77.5,77.5,30.07,SSE,151,0.0,0.0,100,0.00,BKN,,0.00,WeatherDisplay:10.37,2013-08-28 02:07:00,
2013-08-27 22:10:00,77.5,77.5,30.07,SSE,151,0.0,0.0,100,0.00,BKN,,0.00,WeatherDisplay:10.37,2013-08-28 02:10:00,
2013-08-27 22:12:00,77.4,77.4,30.07,SSE,151,0.0,0.0,100,0.00,BKN,,0.00,WeatherDisplay:10.37,2013-08-28 02:12:00,
2013-08-27 22:13:00,77.4,77.4,30.07,SSE,151,0.0,0.0,100,0.00,BKN,,0.00,WeatherDisplay:10.37,2013-08-28 02:13:00,
2013-08-27 22:15:00,77.4,77.4,30.07,SSE,151,0.0,0.0,100,0.00,BKN,,0.00,WeatherDisplay:10.37,2013-08-28 02:15:00,
2013-08-27 22:16:00,77.4,77.4,30.07,SSE,150,0.0,0.0,100,0.00,BKN,,0.00,WeatherDisplay:10.37,2013-08-28 02:16:00,
2013-08-27 22:17:00,77.3,77.3,30.07,SSE,151,0.0,0.0,100,0.00,BKN,,0.00,WeatherDisplay:10.37,2013-08-28 02:17:00,
2013-08-27 22:19:00,77.2,77.2,30.07,SSE,151,0.0,0.0,100,0.00,BKN,,0.00,WeatherDisplay:10.37,2013-08-28 02:19:00,
2013-08-27 22:20:00,77.2,77.2,30.07,SSE,151,0.0,0.0,100,0.00,BKN,,0.00,WeatherDisplay:10.37,2013-08-28 02:20:00,
2013-08-27 22:21:00,77.2,77.2,30.07,SSE,151,0.0,0.0,100,0.00,BKN,,0.00,WeatherDisplay:10.37,2013-08-28 02:21:00,
2013-08-27 22:23:00,77.1,77.1,30.07,SSE,151,0.0,0.0,100,0.00,BKN,,0.00,WeatherDisplay:10.37,2013-08-28 02:23:00,
2013-08-27 22:24:00,77.1,77.1,30.07,SSE,151,0.0,0.0,100,0.00,BKN,,0.00,WeatherDisplay:10.37,2013-08-28 02:24:00,
2013-08-27 22:26:00,77.2,77.2,30.07,SSE,151,0.0,0.0,100,0.00,BKN,,0.00,WeatherDisplay:10.37,2013-08-28 02:26:00,
2013-08-27 22:28:00,77.3,77.3,30.07,SSE,151,0.0,0.0,100,0.00,BKN,,0.00,WeatherDisplay:10.37,2013-08-28 02:28:00,
2013-08-27 22:30:00,77.3,77.3,30.07,SSE,151,0.0,0.0,100,0.00,BKN,,0.00,WeatherDisplay:10.37,2013-08-28 02:30:00,
2013-08-27 22:31:00,77.3,77.3,30.07,SSE,151,0.0,0.0,100,0.00,BKN,,0.00,WeatherDisplay:10.37,2013-08-28 02:31:00,
2013-08-27 22:33:00,77.3,77.3,30.07,SSE,151,0.0,0.0,100,0.00,BKN,,0.00,WeatherDisplay:10.37,2013-08-28 02:33:00,
2013-08-27 22:35:00,77.3,77.3,30.07,SSE,151,0.0,0.0,100,0.00,BKN,,0.00,WeatherDisplay:10.37,2013-08-28 02:35:00,
2013-08-27 22:36:00,77.3,77.3,30.07,SSE,150,0.0,0.0,100,0.00,BKN,,0.00,WeatherDisplay:10.37,2013-08-28 02:36:00,
2013-08-27 22:39:00,77.3,77.3,30.07,SSE,151,0.0,0.0,100,0.00,BKN,,0.00,WeatherDisplay:10.37,2013-08-28 02:39:00,
2013-08-27 22:41:00,77.1,77.1,30.07,SSE,151,0.0,0.0,100,0.00,BKN,,0.00,WeatherDisplay:10.37,2013-08-28 02:41:00,
2013-08-27 22:42:00,77.1,77.1,30.07,SSE,151,0.0,0.0,100,0.00,BKN,,0.00,WeatherDisplay:10.37,2013-08-28 02:42:00,
2013-08-27 22:44:00,77.0,77.0,30.07,SSE,151,0.0,0.0,100,0.00,BKN,,0.00,WeatherDisplay:10.37,2013-08-28 02:44:00,
2013-08-27 22:46:00,77.0,72.5,30.07,SSE,151,0.0,0.0,86,0.00,BKN,,0.00,WeatherDisplay:10.37,2013-08-28 02:46:00,
2013-08-27 22:47:00,77.0,72.5,30.07,SSE,151,0.0,0.0,86,0.00,BKN,,0.00,WeatherDisplay:10.37,2013-08-28 02:47:00,
2013-08-27 22:49:00,77.0,72.5,30.07,SSE,151,0.0,0.0,86,0.00,BKN,,0.00,WeatherDisplay:10.37,2013-08-28 02:49:00,
2013-08-27 22:50:00,77.0,72.5,30.07,SSE,151,0.0,0.0,86,0.00,BKN,,0.00,WeatherDisplay:10.37,2013-08-28 02:50:00,
2013-08-27 22:52:00,77.0,72.1,30.07,SSE,151,0.0,0.0,85,0.00,BKN,,0.00,WeatherDisplay:10.37,2013-08-28 02:52:00,
2013-08-27 22:54:00,77.0,72.1,30.07,SSE,151,0.0,0.0,85,0.00,BKN,,0.00,WeatherDisplay:10.37,2013-08-28 02:54:00,
2013-08-27 22:56:00,77.1,72.2,30.07,SSE,151,0.0,0.0,85,0.00,BKN,,0.00,WeatherDisplay:10.37,2013-08-28 02:56:00,
2013-08-27 22:57:00,77.1,72.2,30.07,SSE,151,0.0,0.0,85,0.00,BKN,,0.00,WeatherDisplay:10.37,2013-08-28 02:57:00,
2013-08-27 22:59:00,77.1,72.2,30.07,SSE,151,0.0,0.0,85,0.00,BKN,,0.00,WeatherDisplay:10.37,2013-08-28 02:59:00,
2013-08-27 23:01:00,77.0,72.1,30.07,SSE,151,0.0,0.0,85,0.00,BKN,,0.00,WeatherDisplay:10.37,2013-08-28 03:01:00,
2013-08-27 23:03:00,77.0,71.8,30.08,SSE,151,0.0,0.0,84,0.00,BKN,,0.00,WeatherDisplay:10.37,2013-08-28 03:03:00,
2013-08-27 23:05:00,77.0,72.1,30.08,SSE,151,0.0,0.0,85,0.00,BKN,,0.00,WeatherDisplay:10.37,2013-08-28 03:05:00,
2013-08-27 23:08:00,76.9,71.7,30.08,SSE,151,0.0,0.0,84,0.00,BKN,,0.00,WeatherDisplay:10.37,2013-08-28 03:08:00,
2013-08-27 23:10:00,76.9,72.0,30.08,SSE,151,0.0,0.0,85,0.00,BKN,,0.00,WeatherDisplay:10.37,2013-08-28 03:10:00,
2013-08-27 23:13:00,76.7,71.8,30.08,SSE,151,0.0,0.0,85,0.00,BKN,,0.00,WeatherDisplay:10.37,2013-08-28 03:13:00,
2013-08-27 23:16:00,76.6,71.7,30.08,SSE,151,0.0,0.0,85,0.00,BKN,,0.00,WeatherDisplay:10.37,2013-08-28 03:16:00,
2013-08-27 23:18:00,76.5,72.0,30.08,SSE,150,0.0,0.0,86,0.00,BKN,,0.00,WeatherDisplay:10.37,2013-08-28 03:18:00,
2013-08-27 23:19:00,76.5,72.0,30.08,SSE,151,0.0,0.0,86,0.00,BKN,,0.00,WeatherDisplay:10.37,2013-08-28 03:19:00,
2013-08-27 23:21:00,76.5,72.0,30.08,SSE,151,0.0,0.0,86,0.00,BKN,,0.00,WeatherDisplay:10.37,2013-08-28 03:21:00,
2013-08-27 23:23:00,76.4,71.9,30.07,SSE,151,0.0,0.0,86,0.00,BKN,,0.00,WeatherDisplay:10.37,2013-08-28 03:23:00,
2013-08-27 23:24:00,76.4,71.9,30.07,SSE,151,0.0,0.0,86,0.00,BKN,,0.00,WeatherDisplay:10.37,2013-08-28 03:24:00,
2013-08-27 23:26:00,76.4,71.9,30.07,SSE,151,0.0,0.0,86,0.00,BKN,,0.00,WeatherDisplay:10.37,2013-08-28 03:26:00,
2013-08-27 23:28:00,76.4,71.9,30.07,SSE,151,0.0,0.0,86,0.00,BKN,,0.00,WeatherDisplay:10.37,2013-08-28 03:28:00,
2013-08-27 23:29:00,76.4,71.9,30.07,SSE,151,0.0,0.0,86,0.00,BKN,,0.00,WeatherDisplay:10.37,2013-08-28 03:29:00,
2013-08-27 23:31:00,76.4,71.9,30.07,SSE,151,0.0,0.0,86,0.00,BKN,,0.00,WeatherDisplay:10.37,2013-08-28 03:31:00,
2013-08-27 23:33:00,76.4,71.9,30.07,SSE,151,0.0,0.0,86,0.00,BKN,,0.00,WeatherDisplay:10.37,2013-08-28 03:33:00,
2013-08-27 23:34:00,76.4,71.9,30.07,SSE,151,0.0,0.0,86,0.00,BKN,,0.00,WeatherDisplay:10.37,2013-08-28 03:34:00,
2013-08-27 23:35:00,76.4,71.9,30.07,SSE,151,0.0,0.0,86,0.00,BKN,,0.00,WeatherDisplay:10.37,2013-08-28 03:35:00,
2013-08-27 23:36:00,76.4,71.9,30.07,SSE,151,0.0,0.0,86,0.00,BKN,,0.00,WeatherDisplay:10.37,2013-08-28 03:36:00,
2013-08-27 23:38:00,76.4,71.9,30.07,SSE,151,0.0,0.0,86,0.00,BKN,,0.00,WeatherDisplay:10.37,2013-08-28 03:38:00,
2013-08-27 23:39:00,76.4,71.9,30.07,SSE,151,0.0,0.0,86,0.00,BKN,,0.00,WeatherDisplay:10.37,2013-08-28 03:39:00,
2013-08-27 23:40:00,76.4,71.9,30.07,SSE,151,0.0,0.0,86,0.00,BKN,,0.00,WeatherDisplay:10.37,2013-08-28 03:40:00,
2013-08-27 23:42:00,76.4,71.9,30.07,SSE,151,0.0,0.0,86,0.00,BKN,,0.00,WeatherDisplay:10.37,2013-08-28 03:42:00,
2013-08-27 23:43:00,76.4,71.9,30.07,SSE,151,0.0,0.0,86,0.00,BKN,,0.00,WeatherDisplay:10.37,2013-08-28 03:43:00,
2013-08-27 23:44:00,76.4,71.9,30.07,SSE,151,0.0,0.0,86,0.00,BKN,,0.00,WeatherDisplay:10.37,2013-08-28 03:44:00,
2013-08-27 23:45:00,76.4,71.9,30.07,SSE,151,0.0,0.0,86,0.00,BKN,,0.00,WeatherDisplay:10.37,2013-08-28 03:45:00,
2013-08-27 23:46:00,76.4,71.9,30.07,SSE,151,0.0,0.0,86,0.00,BKN,,0.00,WeatherDisplay:10.37,2013-08-28 03:46:00,
2013-08-27 23:47:00,76.4,71.9,30.07,SSE,151,0.0,0.0,86,0.00,BKN,,0.00,WeatherDisplay:10.37,2013-08-28 03:47:00,
2013-08-27 23:49:00,76.3,71.8,30.07,SSE,151,0.0,0.0,86,0.00,BKN,,0.00,WeatherDisplay:10.37,2013-08-28 03:49:00,
2013-08-27 23:50:00,76.3,71.8,30.07,SSE,151,0.0,0.0,86,0.00,BKN,,0.00,WeatherDisplay:10.37,2013-08-28 03:50:00,
2013-08-27 23:51:00,76.2,71.7,30.07,SSE,151,0.0,0.0,86,0.00,BKN,,0.00,WeatherDisplay:10.37,2013-08-28 03:51:00,
2013-08-27 23:52:00,76.2,71.7,30.07,SSE,151,0.0,0.0,86,0.00,BKN,,0.00,WeatherDisplay:10.37,2013-08-28 03:52:00,
2013-08-27 23:54:00,76.1,71.6,30.07,SSE,151,0.0,0.0,86,0.00,BKN,,0.00,WeatherDisplay:10.37,2013-08-28 03:54:00,
2013-08-27 23:55:00,76.1,71.6,30.07,SSE,151,0.0,0.0,86,0.00,BKN,,0.00,WeatherDisplay:10.37,2013-08-28 03:55:00,
2013-08-27 23:56:00,76.1,71.6,30.07,SSE,151,0.0,0.0,86,0.00,BKN,,0.00,WeatherDisplay:10.37,2013-08-28 03:56:00,
2013-08-27 23:57:00,76.0,71.5,30.07,SSE,151,0.0,0.0,86,0.00,BKN,,0.00,WeatherDisplay:10.37,2013-08-28 03:57:00,
2013-08-27 23:59:00,76.0,71.8,30.07,SSE,151,0.0,0.0,87,0.00,BKN,,0.00,WeatherDisplay:10.37,2013-08-28 03:59:00,